Wetterdaten: Montag, 12.01.2026
Datum Zeit Temp. Aussen Temp. o. S. Temp +5cm Feuchte Auss Luftdruck Regen Sonnenschein Regendauer Solar Windböen Empfang
12.01.2026 00:00 0,1 °C -0,6 °C -3,9 °C 91 % 1017,7 hPa 0,0 l/m² 0 min 0 min 0 W/m² 32,2 km/h (5 Bft) 97,87 %
12.01.2026 00:02 0,1 °C -0,6 °C -3,9 °C 91 % 1017,7 hPa 0,0 l/m² 0 min 0 min 0 W/m² 12,9 km/h (3 Bft) 9,09 %
12.01.2026 00:04 0,1 °C -0,6 °C -3,9 °C 91 % 1017,6 hPa 0,0 l/m² 0 min 0 min 0 W/m² 22,5 km/h (4 Bft) 100,00 %
12.01.2026 00:07 0,1 °C -0,6 °C -3,3 °C 91 % 1017,5 hPa 0,0 l/m² 0 min 0 min 0 W/m² 22,5 km/h (4 Bft) 100,00 %
12.01.2026 00:08 0,1 °C -0,6 °C -3,3 °C 91 % 1017,5 hPa 0,0 l/m² 0 min 0 min 0 W/m² 32,2 km/h (5 Bft) 98,95 %
12.01.2026 00:12 0,1 °C -0,6 °C -3,3 °C 91 % 1017,4 hPa 0,0 l/m² 0 min 0 min 0 W/m² 29,0 km/h (5 Bft) 96,34 %
12.01.2026 00:14 0,1 °C -0,6 °C -3,3 °C 91 % 1017,4 hPa 0,0 l/m² 0 min 0 min 0 W/m² 32,2 km/h (5 Bft) 97,87 %
12.01.2026 00:16 0,1 °C -0,6 °C -3,3 °C 91 % 1017,3 hPa 0,0 l/m² 0 min 0 min 0 W/m² 25,7 km/h (4 Bft) 100,00 %
12.01.2026 00:18 0,2 °C -0,6 °C -3,3 °C 91 % 1017,2 hPa 0,0 l/m² 0 min 0 min 0 W/m² 22,5 km/h (4 Bft) 97,87 %
12.01.2026 00:20 0,2 °C -0,6 °C -3,3 °C 91 % 1017,2 hPa 0,0 l/m² 0 min 0 min 0 W/m² 22,5 km/h (4 Bft) 97,83 %
12.01.2026 00:22 0,2 °C -0,6 °C -3,3 °C 91 % 1017,2 hPa 0,0 l/m² 0 min 0 min 0 W/m² 25,7 km/h (4 Bft) 96,55 %
12.01.2026 00:24 0,2 °C -0,6 °C -3,3 °C 91 % 1017,2 hPa 0,0 l/m² 0 min 0 min 0 W/m² 29,0 km/h (5 Bft) 95,45 %
12.01.2026 00:26 0,2 °C -0,6 °C -3,3 °C 91 % 1017,2 hPa 0,0 l/m² 0 min 0 min 0 W/m² 25,7 km/h (4 Bft) 97,83 %
12.01.2026 00:28 0,2 °C 0,0 °C -3,3 °C 91 % 1017,2 hPa 0,0 l/m² 0 min 0 min 0 W/m² 22,5 km/h (4 Bft) 97,50 %
12.01.2026 00:30 0,2 °C 0,0 °C -3,3 °C 91 % 1017,2 hPa 0,0 l/m² 0 min 0 min 0 W/m² 25,7 km/h (4 Bft) 97,87 %
12.01.2026 00:32 0,2 °C 0,0 °C -3,3 °C 91 % 1017,2 hPa 0,0 l/m² 0 min 0 min 0 W/m² 22,5 km/h (4 Bft) 93,48 %
12.01.2026 00:34 0,2 °C 0,0 °C -3,3 °C 91 % 1017,1 hPa 0,0 l/m² 0 min 0 min 0 W/m² 22,5 km/h (4 Bft) 97,87 %
12.01.2026 00:36 0,2 °C 0,0 °C -3,3 °C 91 % 1017,0 hPa 0,0 l/m² 0 min 0 min 0 W/m² 16,1 km/h (3 Bft) 97,87 %
12.01.2026 00:38 0,2 °C 0,0 °C -3,3 °C 91 % 1017,0 hPa 0,0 l/m² 0 min 0 min 0 W/m² 35,4 km/h (5 Bft) 96,30 %
12.01.2026 00:40 0,2 °C 0,0 °C -3,3 °C 91 % 1017,0 hPa 0,0 l/m² 0 min 0 min 0 W/m² 19,3 km/h (3 Bft) 92,50 %
12.01.2026 00:42 0,2 °C 0,0 °C -3,3 °C 91 % 1017,0 hPa 0,0 l/m² 0 min 0 min 0 W/m² 25,7 km/h (4 Bft) 93,62 %
12.01.2026 00:44 0,2 °C 0,0 °C -3,3 °C 91 % 1016,9 hPa 0,0 l/m² 0 min 0 min 0 W/m² 16,1 km/h (3 Bft) 93,48 %
12.01.2026 00:46 0,2 °C 0,0 °C -3,3 °C 91 % 1016,9 hPa 0,0 l/m² 0 min 0 min 0 W/m² 25,7 km/h (4 Bft) 91,49 %
12.01.2026 00:48 0,2 °C 0,0 °C -3,3 °C 91 % 1016,8 hPa 0,0 l/m² 0 min 0 min 0 W/m² 29,0 km/h (5 Bft) 91,53 %
12.01.2026 00:50 0,2 °C 0,0 °C -3,3 °C 91 % 1016,9 hPa 0,0 l/m² 0 min 0 min 0 W/m² 16,1 km/h (3 Bft) 93,33 %
12.01.2026 00:52 0,3 °C 0,0 °C -3,3 °C 91 % 1016,8 hPa 0,0 l/m² 0 min 0 min 0 W/m² 29,0 km/h (5 Bft) 92,50 %
12.01.2026 00:54 0,3 °C 0,0 °C -3,3 °C 91 % 1016,7 hPa 0,0 l/m² 0 min 0 min 0 W/m² 19,3 km/h (3 Bft) 91,30 %
12.01.2026 00:56 0,3 °C 0,0 °C -3,3 °C 91 % 1016,7 hPa 0,0 l/m² 0 min 0 min 0 W/m² 25,7 km/h (4 Bft) 93,62 %
12.01.2026 00:58 0,3 °C 0,0 °C -3,3 °C 91 % 1016,7 hPa 0,0 l/m² 0 min 0 min 0 W/m² 41,8 km/h (6 Bft) 91,49 %
12.01.2026 01:00 0,3 °C 0,0 °C -3,3 °C 91 % 1016,7 hPa 0,0 l/m² 0 min 0 min 0 W/m² 25,7 km/h (4 Bft) 47,37 %
12.01.2026 01:02 0,3 °C 0,0 °C -3,3 °C 91 % 1016,7 hPa 0,0 l/m² 0 min 0 min 0 W/m² 29,0 km/h (5 Bft) 93,48 %
12.01.2026 01:04 0,3 °C 0,0 °C -3,3 °C 90 % 1016,6 hPa 0,0 l/m² 0 min 0 min 0 W/m² 32,2 km/h (5 Bft) 95,83 %
12.01.2026 01:08 0,3 °C 0,0 °C -3,3 °C 91 % 1016,6 hPa 0,0 l/m² 0 min 0 min 0 W/m² 32,2 km/h (5 Bft) 94,74 %
12.01.2026 01:10 0,3 °C 0,0 °C -3,3 °C 91 % 1016,5 hPa 0,0 l/m² 0 min 0 min 0 W/m² 19,3 km/h (3 Bft) 95,56 %
12.01.2026 01:12 0,3 °C 0,0 °C -3,3 °C 91 % 1016,5 hPa 0,0 l/m² 0 min 0 min 0 W/m² 29,0 km/h (5 Bft) 96,49 %
12.01.2026 01:14 0,3 °C 0,0 °C -3,3 °C 90 % 1016,4 hPa 0,0 l/m² 0 min 0 min 0 W/m² 19,3 km/h (3 Bft) 95,65 %
12.01.2026 01:16 0,3 °C 0,0 °C -3,3 °C 90 % 1016,4 hPa 0,0 l/m² 0 min 0 min 0 W/m² 35,4 km/h (5 Bft) 95,00 %
12.01.2026 01:18 0,3 °C 0,0 °C -3,3 °C 90 % 1016,3 hPa 0,0 l/m² 0 min 0 min 0 W/m² 22,5 km/h (4 Bft) 93,62 %
12.01.2026 01:20 0,4 °C 0,0 °C -3,3 °C 90 % 1016,2 hPa 0,0 l/m² 0 min 0 min 0 W/m² 32,2 km/h (5 Bft) 97,67 %
12.01.2026 01:22 0,4 °C 0,0 °C -3,3 °C 90 % 1016,2 hPa 0,0 l/m² 0 min 0 min 0 W/m² 25,7 km/h (4 Bft) 96,08 %
12.01.2026 01:24 0,4 °C 0,0 °C -3,3 °C 90 % 1016,2 hPa 0,0 l/m² 0 min 0 min 0 W/m² 19,3 km/h (3 Bft) 97,87 %
12.01.2026 01:25 0,4 °C 0,0 °C -3,3 °C 90 % 1016,2 hPa 0,0 l/m² 0 min 0 min 0 W/m² 25,7 km/h (4 Bft) 98,25 %
12.01.2026 01:32 0,4 °C 0,0 °C -3,3 °C 90 % 1015,9 hPa 0,0 l/m² 0 min 0 min 0 W/m² 29,0 km/h (5 Bft) 98,28 %
12.01.2026 01:33 0,4 °C 0,0 °C -3,3 °C 90 % 1016,0 hPa 0,0 l/m² 0 min 0 min 0 W/m² 35,4 km/h (5 Bft) 96,00 %
12.01.2026 01:34 0,4 °C 0,0 °C -3,3 °C 90 % 1016,0 hPa 0,0 l/m² 0 min 0 min 0 W/m² 19,3 km/h (3 Bft) 97,87 %
12.01.2026 01:35 0,4 °C 0,0 °C -3,3 °C 90 % 1015,9 hPa 0,0 l/m² 0 min 0 min 0 W/m² 38,6 km/h (5 Bft) 96,49 %
12.01.2026 01:38 0,4 °C 0,0 °C -3,3 °C 90 % 1016,0 hPa 0,0 l/m² 0 min 0 min 0 W/m² 22,5 km/h (4 Bft) 98,00 %
12.01.2026 01:40 0,4 °C 0,0 °C -3,3 °C 90 % 1015,8 hPa 0,0 l/m² 0 min 0 min 0 W/m² 32,2 km/h (5 Bft) 97,87 %
12.01.2026 01:42 0,4 °C 0,0 °C -3,3 °C 90 % 1015,8 hPa 0,0 l/m² 0 min 0 min 0 W/m² 32,2 km/h (5 Bft) 97,73 %
12.01.2026 01:44 0,5 °C 0,0 °C -3,3 °C 90 % 1015,7 hPa 0,0 l/m² 0 min 0 min 0 W/m² 35,4 km/h (5 Bft) 100,00 %
12.01.2026 01:46 0,5 °C 0,0 °C -3,3 °C 90 % 1015,7 hPa 0,0 l/m² 0 min 0 min 0 W/m² 22,5 km/h (4 Bft) 100,00 %
12.01.2026 01:48 0,5 °C 0,0 °C -3,3 °C 90 % 1015,7 hPa 0,0 l/m² 0 min 0 min 0 W/m² 38,6 km/h (5 Bft) 97,62 %
12.01.2026 01:50 0,5 °C 0,0 °C -3,3 °C 90 % 1015,7 hPa 0,0 l/m² 0 min 0 min 0 W/m² 35,4 km/h (5 Bft) 98,04 %
12.01.2026 01:52 0,5 °C 0,0 °C -3,3 °C 90 % 1015,6 hPa 0,0 l/m² 0 min 0 min 0 W/m² 29,0 km/h (5 Bft) 100,00 %
12.01.2026 01:54 0,5 °C 0,0 °C -3,3 °C 90 % 1015,6 hPa 0,0 l/m² 0 min 0 min 0 W/m² 35,4 km/h (5 Bft) 100,00 %
12.01.2026 01:56 0,5 °C 0,0 °C -3,3 °C 90 % 1015,5 hPa 0,0 l/m² 0 min 0 min 0 W/m² 35,4 km/h (5 Bft) 97,87 %
12.01.2026 01:58 0,6 °C 0,0 °C -3,3 °C 90 % 1015,5 hPa 0,0 l/m² 0 min 0 min 0 W/m² 38,6 km/h (5 Bft) 100,00 %
12.01.2026 02:00 0,6 °C 0,0 °C -3,3 °C 90 % 1015,4 hPa 0,0 l/m² 0 min 0 min 0 W/m² 22,5 km/h (4 Bft) 100,00 %
12.01.2026 02:02 0,6 °C 0,0 °C -3,3 °C 90 % 1015,4 hPa 0,0 l/m² 0 min 0 min 0 W/m² 29,0 km/h (5 Bft) 97,62 %
12.01.2026 02:04 0,6 °C 0,0 °C -3,3 °C 90 % 1015,4 hPa 0,0 l/m² 0 min 0 min 0 W/m² 35,4 km/h (5 Bft) 100,00 %
12.01.2026 02:08 0,6 °C 0,0 °C -3,3 °C 90 % 1015,4 hPa 0,0 l/m² 0 min 0 min 0 W/m² 29,0 km/h (5 Bft) 100,00 %
12.01.2026 02:10 0,6 °C 0,0 °C -3,3 °C 90 % 1015,3 hPa 0,0 l/m² 0 min 0 min 0 W/m² 29,0 km/h (5 Bft) 96,15 %
12.01.2026 02:12 0,6 °C 0,0 °C -3,3 °C 90 % 1015,3 hPa 0,0 l/m² 0 min 0 min 0 W/m² 29,0 km/h (5 Bft) 100,00 %
12.01.2026 02:14 0,6 °C 0,0 °C -3,3 °C 90 % 1015,3 hPa 0,0 l/m² 0 min 0 min 0 W/m² 29,0 km/h (5 Bft) 98,25 %
12.01.2026 02:16 0,6 °C 0,0 °C -3,3 °C 90 % 1015,3 hPa 0,0 l/m² 0 min 0 min 0 W/m² 19,3 km/h (3 Bft) 100,00 %
12.01.2026 02:18 0,6 °C 0,0 °C -3,3 °C 90 % 1015,3 hPa 0,0 l/m² 0 min 0 min 0 W/m² 25,7 km/h (4 Bft) 100,00 %
12.01.2026 02:20 0,6 °C 0,0 °C -3,9 °C 90 % 1015,3 hPa 0,0 l/m² 0 min 0 min 0 W/m² 35,4 km/h (5 Bft) 100,00 %
12.01.2026 02:22 0,6 °C 0,0 °C -3,9 °C 90 % 1015,3 hPa 0,0 l/m² 0 min 0 min 0 W/m² 25,7 km/h (4 Bft) 100,00 %
12.01.2026 02:24 0,6 °C 0,0 °C -3,9 °C 91 % 1015,3 hPa 0,0 l/m² 0 min 0 min 0 W/m² 25,7 km/h (4 Bft) 94,59 %
12.01.2026 02:26 0,6 °C 0,0 °C -3,9 °C 91 % 1015,3 hPa 0,0 l/m² 0 min 0 min 0 W/m² 19,3 km/h (3 Bft) 100,00 %
12.01.2026 02:28 0,6 °C 0,0 °C -3,9 °C 91 % 1015,2 hPa 0,0 l/m² 0 min 0 min 0 W/m² 29,0 km/h (5 Bft) 85,71 %
12.01.2026 02:30 0,6 °C 0,0 °C -3,9 °C 91 % 1015,2 hPa 0,0 l/m² 0 min 0 min 0 W/m² 16,1 km/h (3 Bft) 95,74 %
12.01.2026 02:32 0,6 °C 0,0 °C -3,9 °C 91 % 1015,2 hPa 0,0 l/m² 0 min 0 min 0 W/m² 32,2 km/h (5 Bft) 97,56 %
12.01.2026 02:34 0,6 °C 0,0 °C -3,9 °C 91 % 1015,3 hPa 0,0 l/m² 0 min 0 min 0 W/m² 22,5 km/h (4 Bft) 94,34 %
12.01.2026 02:36 0,6 °C 0,0 °C -3,9 °C 91 % 1015,2 hPa 0,0 l/m² 0 min 0 min 0 W/m² 41,8 km/h (6 Bft) 97,56 %
12.01.2026 02:38 0,6 °C 0,0 °C -3,9 °C 91 % 1015,2 hPa 0,0 l/m² 0 min 0 min 0 W/m² 29,0 km/h (5 Bft) 97,56 %
12.01.2026 02:40 0,6 °C 0,0 °C -3,9 °C 91 % 1015,2 hPa 0,0 l/m² 0 min 0 min 0 W/m² 25,7 km/h (4 Bft) 95,65 %
12.01.2026 02:42 0,5 °C 0,0 °C -3,9 °C 91 % 1015,2 hPa 0,0 l/m² 0 min 0 min 0 W/m² 19,3 km/h (3 Bft) 98,31 %
12.01.2026 02:44 0,6 °C 0,0 °C -3,9 °C 91 % 1015,2 hPa 0,0 l/m² 0 min 0 min 0 W/m² 35,4 km/h (5 Bft) 97,14 %
12.01.2026 02:46 0,5 °C 0,0 °C -3,9 °C 91 % 1015,3 hPa 0,0 l/m² 0 min 0 min 0 W/m² 19,3 km/h (3 Bft) 96,61 %
12.01.2026 02:48 0,5 °C 0,0 °C -3,9 °C 92 % 1015,2 hPa 0,0 l/m² 0 min 0 min 0 W/m² 22,5 km/h (4 Bft) 95,65 %
12.01.2026 02:50 0,5 °C 0,0 °C -3,9 °C 92 % 1015,2 hPa 0,0 l/m² 0 min 0 min 0 W/m² 29,0 km/h (5 Bft) 95,35 %
12.01.2026 02:52 0,5 °C 0,0 °C -3,9 °C 92 % 1015,2 hPa 0,0 l/m² 0 min 0 min 0 W/m² 29,0 km/h (5 Bft) 94,12 %
12.01.2026 02:54 0,5 °C 0,0 °C -3,9 °C 92 % 1015,2 hPa 0,0 l/m² 0 min 0 min 0 W/m² 29,0 km/h (5 Bft) 91,43 %
12.01.2026 02:56 0,4 °C 0,0 °C -3,9 °C 92 % 1015,1 hPa 0,0 l/m² 0 min 0 min 0 W/m² 25,7 km/h (4 Bft) 89,47 %
12.01.2026 02:58 0,4 °C 0,0 °C -3,9 °C 92 % 1015,1 hPa 0,0 l/m² 0 min 0 min 0 W/m² 16,1 km/h (3 Bft) 94,59 %
12.01.2026 03:00 0,4 °C -0,6 °C -3,9 °C 92 % 1014,9 hPa 0,0 l/m² 0 min 0 min 0 W/m² 22,5 km/h (4 Bft) 93,10 %
12.01.2026 03:02 0,4 °C -0,6 °C -3,9 °C 92 % 1014,8 hPa 0,0 l/m² 0 min 0 min 0 W/m² 19,3 km/h (3 Bft) 97,22 %
12.01.2026 03:04 0,4 °C -0,6 °C -3,9 °C 92 % 1014,8 hPa 0,0 l/m² 0 min 0 min 0 W/m² 22,5 km/h (4 Bft) 94,55 %
12.01.2026 03:07 0,4 °C -0,6 °C -3,9 °C 93 % 1014,7 hPa 0,0 l/m² 0 min 3 min 0 W/m² 19,3 km/h (3 Bft) 97,33 %
12.01.2026 03:12 0,3 °C -0,6 °C -3,9 °C 93 % 1014,6 hPa 0,0 l/m² 0 min 5 min 0 W/m² 35,4 km/h (5 Bft) 94,29 %
12.01.2026 03:14 0,3 °C -0,6 °C -3,9 °C 93 % 1014,5 hPa 0,0 l/m² 0 min 2 min 0 W/m² 22,5 km/h (4 Bft) 28,57 %
12.01.2026 03:16 0,3 °C -0,6 °C -3,9 °C 93 % 1014,5 hPa 0,0 l/m² 0 min 2 min 0 W/m² 29,0 km/h (5 Bft) 98,15 %
12.01.2026 03:18 0,3 °C -0,6 °C -3,9 °C 93 % 1014,5 hPa 0,0 l/m² 0 min 2 min 0 W/m² 29,0 km/h (5 Bft) 97,50 %
12.01.2026 03:20 0,4 °C -0,6 °C -3,9 °C 93 % 1014,6 hPa 0,0 l/m² 0 min 2 min 0 W/m² 32,2 km/h (5 Bft) 91,49 %
12.01.2026 03:22 0,4 °C -0,6 °C -3,9 °C 93 % 1014,5 hPa 0,0 l/m² 0 min 2 min 0 W/m² 25,7 km/h (4 Bft) 98,25 %
12.01.2026 03:24 0,4 °C -0,6 °C -3,9 °C 93 % 1014,5 hPa 0,0 l/m² 0 min 2 min 0 W/m² 25,7 km/h (4 Bft) 97,67 %
12.01.2026 03:26 0,4 °C -0,6 °C -3,9 °C 93 % 1014,5 hPa 0,0 l/m² 0 min 2 min 0 W/m² 32,2 km/h (5 Bft) 100,00 %
12.01.2026 03:28 0,4 °C -0,6 °C -3,9 °C 93 % 1014,6 hPa 0,0 l/m² 0 min 2 min 0 W/m² 29,0 km/h (5 Bft) 100,00 %
12.01.2026 03:30 0,4 °C -0,6 °C -3,9 °C 93 % 1014,5 hPa 0,0 l/m² 0 min 2 min 0 W/m² 19,3 km/h (3 Bft) 100,00 %
12.01.2026 03:32 0,4 °C -0,6 °C -3,9 °C 94 % 1014,5 hPa 0,0 l/m² 0 min 0 min 0 W/m² 19,3 km/h (3 Bft) 100,00 %
12.01.2026 03:34 0,4 °C -0,6 °C -3,9 °C 94 % 1014,4 hPa 0,0 l/m² 0 min 2 min 0 W/m² 25,7 km/h (4 Bft) 100,00 %
12.01.2026 03:36 0,3 °C -0,6 °C -3,9 °C 94 % 1014,2 hPa 0,0 l/m² 0 min 0 min 0 W/m² 29,0 km/h (5 Bft) 97,56 %
12.01.2026 03:38 0,3 °C -0,6 °C -3,9 °C 94 % 1014,2 hPa 0,0 l/m² 0 min 0 min 0 W/m² 32,2 km/h (5 Bft) 97,83 %
12.01.2026 03:40 0,3 °C -0,6 °C -3,9 °C 94 % 1013,9 hPa 0,0 l/m² 0 min 0 min 0 W/m² 19,3 km/h (3 Bft) 96,49 %
12.01.2026 03:44 0,3 °C -0,6 °C -3,9 °C 94 % 1013,6 hPa 0,0 l/m² 0 min 0 min 0 W/m² 25,7 km/h (4 Bft) 95,24 %
12.01.2026 03:46 0,3 °C -0,6 °C -3,9 °C 94 % 1013,5 hPa 0,0 l/m² 0 min 0 min 0 W/m² 29,0 km/h (5 Bft) 94,64 %
12.01.2026 03:48 0,3 °C -0,6 °C -3,9 °C 94 % 1013,6 hPa 0,0 l/m² 0 min 0 min 0 W/m² 19,3 km/h (3 Bft) 94,74 %
12.01.2026 03:50 0,3 °C -0,6 °C -3,9 °C 94 % 1013,4 hPa 0,0 l/m² 0 min 0 min 0 W/m² 19,3 km/h (3 Bft) 98,28 %
12.01.2026 03:52 0,3 °C -0,6 °C -3,9 °C 94 % 1013,3 hPa 0,0 l/m² 0 min 2 min 0 W/m² 22,5 km/h (4 Bft) 97,87 %
12.01.2026 03:54 0,4 °C -0,6 °C -3,9 °C 94 % 1013,2 hPa 0,0 l/m² 0 min 0 min 0 W/m² 22,5 km/h (4 Bft) 97,14 %
12.01.2026 03:56 0,3 °C -0,6 °C -3,9 °C 94 % 1013,3 hPa 0,0 l/m² 0 min 0 min 0 W/m² 29,0 km/h (5 Bft) 98,15 %
12.01.2026 03:58 0,3 °C -0,6 °C -3,9 °C 94 % 1013,2 hPa 0,0 l/m² 0 min 0 min 0 W/m² 25,7 km/h (4 Bft) 96,08 %
12.01.2026 04:00 0,3 °C -0,6 °C -3,9 °C 94 % 1013,1 hPa 0,0 l/m² 0 min 0 min 0 W/m² 22,5 km/h (4 Bft) 97,37 %
12.01.2026 04:02 0,3 °C -0,6 °C -3,9 °C 95 % 1013,0 hPa 0,0 l/m² 0 min 0 min 0 W/m² 38,6 km/h (5 Bft) 97,87 %
12.01.2026 04:04 0,3 °C -0,6 °C -3,9 °C 95 % 1013,0 hPa 0,0 l/m² 0 min 0 min 0 W/m² 19,3 km/h (3 Bft) 97,87 %
12.01.2026 04:08 0,3 °C -0,6 °C -3,9 °C 95 % 1013,0 hPa 0,0 l/m² 0 min 0 min 0 W/m² 29,0 km/h (5 Bft) 97,92 %
12.01.2026 04:10 0,3 °C -0,6 °C -3,9 °C 95 % 1012,9 hPa 0,0 l/m² 0 min 0 min 0 W/m² 22,5 km/h (4 Bft) 97,87 %
12.01.2026 04:12 0,4 °C -0,6 °C -3,9 °C 95 % 1012,9 hPa 0,0 l/m² 0 min 0 min 0 W/m² 29,0 km/h (5 Bft) 97,67 %
12.01.2026 04:14 0,4 °C -0,6 °C -3,9 °C 95 % 1012,9 hPa 0,0 l/m² 0 min 0 min 0 W/m² 38,6 km/h (5 Bft) 98,00 %
12.01.2026 04:16 0,4 °C -0,6 °C -3,9 °C 95 % 1012,8 hPa 0,0 l/m² 0 min 0 min 0 W/m² 29,0 km/h (5 Bft) 95,56 %
12.01.2026 04:18 0,4 °C -0,6 °C -3,9 °C 95 % 1012,7 hPa 0,0 l/m² 0 min 0 min 0 W/m² 29,0 km/h (5 Bft) 97,96 %
12.01.2026 04:20 0,4 °C 0,0 °C -3,9 °C 95 % 1012,9 hPa 0,0 l/m² 0 min 0 min 0 W/m² 32,2 km/h (5 Bft) 97,83 %
12.01.2026 04:22 0,4 °C 0,0 °C -3,9 °C 95 % 1012,8 hPa 0,0 l/m² 0 min 0 min 0 W/m² 32,2 km/h (5 Bft) 95,83 %
12.01.2026 04:24 0,4 °C 0,0 °C -3,9 °C 95 % 1012,8 hPa 0,0 l/m² 0 min 0 min 0 W/m² 35,4 km/h (5 Bft) 97,83 %
12.01.2026 04:26 0,4 °C 0,0 °C -3,9 °C 95 % 1012,7 hPa 0,0 l/m² 0 min 0 min 0 W/m² 19,3 km/h (3 Bft) 95,65 %
12.01.2026 04:28 0,4 °C 0,0 °C -3,9 °C 95 % 1012,6 hPa 0,0 l/m² 0 min 0 min 0 W/m² 32,2 km/h (5 Bft) 97,92 %
12.01.2026 04:30 0,4 °C 0,0 °C -3,9 °C 95 % 1012,6 hPa 0,0 l/m² 0 min 0 min 0 W/m² 25,7 km/h (4 Bft) 95,56 %
12.01.2026 04:32 0,4 °C 0,0 °C -3,9 °C 95 % 1012,6 hPa 0,0 l/m² 0 min 0 min 0 W/m² 32,2 km/h (5 Bft) 89,80 %
12.01.2026 04:34 0,4 °C 0,0 °C -3,9 °C 95 % 1012,5 hPa 0,0 l/m² 0 min 0 min 0 W/m² 32,2 km/h (5 Bft) 95,56 %
12.01.2026 04:36 0,4 °C 0,0 °C -3,3 °C 95 % 1012,5 hPa 0,0 l/m² 0 min 0 min 0 W/m² 35,4 km/h (5 Bft) 97,92 %
12.01.2026 04:40 0,4 °C 0,0 °C -3,3 °C 95 % 1012,5 hPa 0,0 l/m² 0 min 0 min 0 W/m² 25,7 km/h (4 Bft) 96,81 %
12.01.2026 04:42 0,4 °C 0,0 °C -3,3 °C 95 % 1012,5 hPa 0,0 l/m² 0 min 0 min 0 W/m² 19,3 km/h (3 Bft) 23,08 %
12.01.2026 04:44 0,4 °C 0,0 °C -3,3 °C 95 % 1012,5 hPa 0,0 l/m² 0 min 0 min 0 W/m² 25,7 km/h (4 Bft) 97,67 %
12.01.2026 04:46 0,4 °C 0,0 °C -3,3 °C 95 % 1012,5 hPa 0,0 l/m² 0 min 0 min 0 W/m² 35,4 km/h (5 Bft) 97,67 %
12.01.2026 04:48 0,4 °C 0,0 °C -3,3 °C 95 % 1012,5 hPa 0,0 l/m² 0 min 0 min 0 W/m² 19,3 km/h (3 Bft) 98,00 %
12.01.2026 04:50 0,4 °C 0,0 °C -3,3 °C 95 % 1012,5 hPa 0,0 l/m² 0 min 0 min 0 W/m² 19,3 km/h (3 Bft) 97,73 %
12.01.2026 04:54 0,4 °C 0,0 °C -3,3 °C 95 % 1012,3 hPa 0,0 l/m² 0 min 0 min 0 W/m² 22,5 km/h (4 Bft) 95,92 %
12.01.2026 04:58 0,4 °C 0,0 °C -3,3 °C 95 % 1012,3 hPa 0,0 l/m² 0 min 0 min 0 W/m² 25,7 km/h (4 Bft) 96,74 %
12.01.2026 05:00 0,4 °C 0,0 °C -3,3 °C 95 % 1012,3 hPa 0,0 l/m² 0 min 0 min 0 W/m² 38,6 km/h (5 Bft) 97,96 %
12.01.2026 05:02 0,4 °C 0,0 °C -3,3 °C 95 % 1012,2 hPa 0,0 l/m² 0 min 0 min 0 W/m² 29,0 km/h (5 Bft) 100,00 %
12.01.2026 05:06 0,5 °C 0,0 °C -3,3 °C 96 % 1012,1 hPa 0,0 l/m² 0 min 0 min 0 W/m² 25,7 km/h (4 Bft) 95,92 %
12.01.2026 05:08 0,5 °C 0,0 °C -3,3 °C 96 % 1012,1 hPa 0,0 l/m² 0 min 0 min 0 W/m² 25,7 km/h (4 Bft) 94,29 %
12.01.2026 05:10 0,5 °C 0,0 °C -3,3 °C 96 % 1012,1 hPa 0,0 l/m² 0 min 0 min 0 W/m² 19,3 km/h (3 Bft) 98,18 %
12.01.2026 05:14 0,6 °C 0,0 °C -3,3 °C 95 % 1012,1 hPa 0,0 l/m² 0 min 0 min 0 W/m² 29,0 km/h (5 Bft) 94,74 %
12.01.2026 05:17 0,6 °C 0,0 °C -3,3 °C 96 % 1011,9 hPa 0,0 l/m² 0 min 0 min 0 W/m² 22,5 km/h (4 Bft) 96,97 %
12.01.2026 05:19 0,6 °C 0,0 °C -3,3 °C 96 % 1011,8 hPa 0,0 l/m² 0 min 0 min 0 W/m² 32,2 km/h (5 Bft) 95,59 %
12.01.2026 05:20 0,6 °C 0,0 °C -3,3 °C 96 % 1011,8 hPa 0,0 l/m² 0 min 0 min 0 W/m² 32,2 km/h (5 Bft) 98,25 %
12.01.2026 05:24 0,6 °C 0,0 °C -3,3 °C 96 % 1011,9 hPa 0,0 l/m² 0 min 0 min 0 W/m² 16,1 km/h (3 Bft) 95,60 %
12.01.2026 05:28 0,6 °C 0,0 °C -3,3 °C 96 % 1011,6 hPa 0,0 l/m² 0 min 0 min 0 W/m² 29,0 km/h (5 Bft) 96,97 %
12.01.2026 05:30 0,6 °C 0,0 °C -3,3 °C 96 % 1011,6 hPa 0,0 l/m² 0 min 0 min 0 W/m² 19,3 km/h (3 Bft) 95,83 %
12.01.2026 05:32 0,6 °C 0,0 °C -3,3 °C 96 % 1011,6 hPa 0,0 l/m² 0 min 0 min 0 W/m² 12,9 km/h (3 Bft) 95,65 %
12.01.2026 05:36 0,6 °C 0,0 °C -3,3 °C 96 % 1011,6 hPa 0,0 l/m² 0 min 0 min 0 W/m² 25,7 km/h (4 Bft) 97,89 %
12.01.2026 05:38 0,6 °C 0,0 °C -3,3 °C 96 % 1011,5 hPa 0,0 l/m² 0 min 0 min 0 W/m² 35,4 km/h (5 Bft) 97,67 %
12.01.2026 05:40 0,6 °C 0,0 °C -3,3 °C 96 % 1011,5 hPa 0,0 l/m² 0 min 0 min 0 W/m² 16,1 km/h (3 Bft) 97,96 %
12.01.2026 05:44 0,6 °C 0,0 °C -3,3 °C 96 % 1011,4 hPa 0,0 l/m² 0 min 0 min 0 W/m² 22,5 km/h (4 Bft) 96,97 %
12.01.2026 05:46 0,6 °C 0,0 °C -3,3 °C 96 % 1011,3 hPa 0,0 l/m² 0 min 0 min 0 W/m² 25,7 km/h (4 Bft) 95,77 %
12.01.2026 05:47 0,6 °C 0,0 °C -3,3 °C 96 % 1011,3 hPa 0,0 l/m² 0 min 0 min 0 W/m² 22,5 km/h (4 Bft) 94,92 %
12.01.2026 05:52 0,6 °C 0,0 °C -3,3 °C 96 % 1011,3 hPa 0,0 l/m² 0 min 0 min 0 W/m² 22,5 km/h (4 Bft) 100,00 %
12.01.2026 05:56 0,6 °C 0,0 °C -3,3 °C 96 % 1011,2 hPa 0,0 l/m² 0 min 0 min 0 W/m² 25,7 km/h (4 Bft) 100,00 %
12.01.2026 05:58 0,6 °C 0,0 °C -3,3 °C 96 % 1011,2 hPa 0,0 l/m² 0 min 0 min 0 W/m² 16,1 km/h (3 Bft) 100,00 %
12.01.2026 05:59 0,6 °C 0,0 °C -3,3 °C 96 % 1011,3 hPa 0,0 l/m² 0 min 0 min 0 W/m² 19,3 km/h (3 Bft) 95,99 %
12.01.2026 06:00 0,6 °C 0,0 °C -3,3 °C 96 % 1011,3 hPa 0,0 l/m² 0 min 0 min 0 W/m² 19,3 km/h (3 Bft) 100,00 %
12.01.2026 06:04 0,6 °C 0,0 °C -3,3 °C 96 % 1011,2 hPa 0,0 l/m² 0 min 0 min 0 W/m² 29,0 km/h (5 Bft) 98,11 %
12.01.2026 06:07 0,6 °C 0,0 °C -3,3 °C 96 % 1011,3 hPa 0,0 l/m² 0 min 0 min 0 W/m² 25,7 km/h (4 Bft) 98,11 %
12.01.2026 06:10 0,6 °C 0,0 °C -3,3 °C 96 % 1011,2 hPa 0,0 l/m² 0 min 0 min 0 W/m² 29,0 km/h (5 Bft) 100,00 %
12.01.2026 06:12 0,6 °C 0,0 °C -3,3 °C 96 % 1011,2 hPa 0,0 l/m² 0 min 0 min 0 W/m² 22,5 km/h (4 Bft) 97,87 %
12.01.2026 06:16 0,6 °C 0,0 °C -3,3 °C 96 % 1011,1 hPa 0,0 l/m² 0 min 0 min 0 W/m² 25,7 km/h (4 Bft) 98,92 %
12.01.2026 06:18 0,6 °C 0,0 °C -3,3 °C 96 % 1011,1 hPa 0,0 l/m² 0 min 0 min 0 W/m² 16,1 km/h (3 Bft) 97,62 %
12.01.2026 06:20 0,6 °C 0,0 °C -3,3 °C 96 % 1011,1 hPa 0,0 l/m² 0 min 0 min 0 W/m² 25,7 km/h (4 Bft) 98,08 %
12.01.2026 06:22 0,6 °C 0,0 °C -3,3 °C 96 % 1011,0 hPa 0,0 l/m² 0 min 0 min 0 W/m² 19,3 km/h (3 Bft) 97,73 %
12.01.2026 06:24 0,7 °C 0,0 °C -3,3 °C 96 % 1011,0 hPa 0,0 l/m² 0 min 0 min 0 W/m² 16,1 km/h (3 Bft) 98,00 %
12.01.2026 06:26 0,6 °C 0,0 °C -3,3 °C 96 % 1011,0 hPa 0,0 l/m² 0 min 2 min 0 W/m² 29,0 km/h (5 Bft) 97,87 %
12.01.2026 06:28 0,7 °C 0,0 °C -3,3 °C 96 % 1011,0 hPa 0,0 l/m² 0 min 2 min 0 W/m² 19,3 km/h (3 Bft) 97,73 %
12.01.2026 06:30 0,7 °C 0,0 °C -3,3 °C 96 % 1011,0 hPa 0,0 l/m² 0 min 2 min 0 W/m² 16,1 km/h (3 Bft) 97,37 %
12.01.2026 06:32 0,7 °C 0,0 °C -3,3 °C 96 % 1011,0 hPa 0,0 l/m² 0 min 0 min 0 W/m² 25,7 km/h (4 Bft) 98,28 %
12.01.2026 06:34 0,7 °C 0,0 °C -3,3 °C 96 % 1011,0 hPa 0,0 l/m² 0 min 2 min 0 W/m² 16,1 km/h (3 Bft) 95,65 %
12.01.2026 06:36 0,7 °C 0,0 °C -3,3 °C 96 % 1011,0 hPa 0,0 l/m² 0 min 2 min 0 W/m² 16,1 km/h (3 Bft) 97,67 %
12.01.2026 06:38 0,7 °C 0,0 °C -3,3 °C 96 % 1010,9 hPa 0,0 l/m² 0 min 0 min 0 W/m² 25,7 km/h (4 Bft) 94,23 %
12.01.2026 06:40 0,7 °C 0,0 °C -3,3 °C 96 % 1010,9 hPa 0,0 l/m² 0 min 0 min 0 W/m² 22,5 km/h (4 Bft) 97,78 %
12.01.2026 06:42 0,7 °C 0,0 °C -3,3 °C 96 % 1010,9 hPa 0,0 l/m² 0 min 0 min 0 W/m² 19,3 km/h (3 Bft) 93,18 %
12.01.2026 06:44 0,8 °C 0,0 °C -3,3 °C 96 % 1011,0 hPa 0,0 l/m² 0 min 2 min 0 W/m² 19,3 km/h (3 Bft) 96,08 %
12.01.2026 06:46 0,8 °C 0,0 °C -3,3 °C 96 % 1011,0 hPa 0,2 l/m² 0 min 0 min 0 W/m² 22,5 km/h (4 Bft) 95,74 %
12.01.2026 06:48 0,8 °C 0,0 °C -2,8 °C 96 % 1011,0 hPa 0,0 l/m² 0 min 0 min 0 W/m² 29,0 km/h (5 Bft) 97,78 %
12.01.2026 06:50 0,8 °C 0,0 °C -2,8 °C 96 % 1011,0 hPa 0,0 l/m² 0 min 0 min 0 W/m² 16,1 km/h (3 Bft) 100,00 %
12.01.2026 06:52 0,8 °C 0,0 °C -2,8 °C 96 % 1011,0 hPa 0,2 l/m² 0 min 0 min 0 W/m² 25,7 km/h (4 Bft) 95,56 %
12.01.2026 06:54 0,8 °C 0,0 °C -2,8 °C 96 % 1011,0 hPa 0,0 l/m² 0 min 2 min 0 W/m² 25,7 km/h (4 Bft) 95,74 %
12.01.2026 06:56 0,8 °C 0,0 °C -2,8 °C 96 % 1010,9 hPa 0,2 l/m² 0 min 2 min 0 W/m² 19,3 km/h (3 Bft) 97,92 %
12.01.2026 06:58 0,8 °C 0,0 °C -2,8 °C 96 % 1010,9 hPa 0,0 l/m² 0 min 0 min 0 W/m² 19,3 km/h (3 Bft) 95,83 %
12.01.2026 07:00 0,8 °C 0,0 °C -2,8 °C 96 % 1010,9 hPa 0,0 l/m² 0 min 2 min 0 W/m² 16,1 km/h (3 Bft) 97,30 %
12.01.2026 07:02 0,8 °C 0,0 °C -2,8 °C 96 % 1010,9 hPa 0,0 l/m² 0 min 2 min 0 W/m² 19,3 km/h (3 Bft) 98,15 %
12.01.2026 07:04 0,8 °C 0,0 °C -2,8 °C 96 % 1010,9 hPa 0,2 l/m² 0 min 0 min 0 W/m² 22,5 km/h (4 Bft) 97,87 %
12.01.2026 07:06 0,8 °C 0,0 °C -2,8 °C 96 % 1011,0 hPa 0,0 l/m² 0 min 0 min 0 W/m² 19,3 km/h (3 Bft) 98,08 %
12.01.2026 07:08 0,8 °C 0,0 °C -2,8 °C 96 % 1011,0 hPa 0,0 l/m² 0 min 0 min 0 W/m² 22,5 km/h (4 Bft) 97,22 %
12.01.2026 07:10 0,8 °C 0,0 °C -2,8 °C 96 % 1011,0 hPa 0,0 l/m² 0 min 2 min 0 W/m² 25,7 km/h (4 Bft) 96,55 %
12.01.2026 07:12 0,8 °C 0,0 °C -2,8 °C 96 % 1011,0 hPa 0,2 l/m² 0 min 2 min 0 W/m² 22,5 km/h (4 Bft) 95,74 %
12.01.2026 07:14 0,8 °C 0,0 °C -2,8 °C 96 % 1011,0 hPa 0,0 l/m² 0 min 2 min 0 W/m² 22,5 km/h (4 Bft) 97,87 %
12.01.2026 07:16 0,8 °C 0,0 °C -2,8 °C 96 % 1011,1 hPa 0,0 l/m² 0 min 0 min 0 W/m² 19,3 km/h (3 Bft) 95,74 %
12.01.2026 07:18 0,8 °C 0,0 °C -2,8 °C 96 % 1011,1 hPa 0,0 l/m² 0 min 2 min 0 W/m² 19,3 km/h (3 Bft) 93,48 %
12.01.2026 07:20 0,8 °C 0,0 °C -2,8 °C 96 % 1011,1 hPa 0,0 l/m² 0 min 2 min 0 W/m² 22,5 km/h (4 Bft) 97,83 %
12.01.2026 07:22 0,8 °C 0,0 °C -2,8 °C 96 % 1011,1 hPa 0,0 l/m² 0 min 0 min 0 W/m² 16,1 km/h (3 Bft) 95,45 %
12.01.2026 07:24 0,8 °C 0,0 °C -2,8 °C 96 % 1011,1 hPa 0,2 l/m² 0 min 2 min 0 W/m² 12,9 km/h (3 Bft) 95,65 %
12.01.2026 07:26 0,8 °C 0,0 °C -2,8 °C 96 % 1011,1 hPa 0,0 l/m² 0 min 0 min 0 W/m² 19,3 km/h (3 Bft) 97,83 %
12.01.2026 07:28 0,8 °C 0,0 °C -2,8 °C 96 % 1011,1 hPa 0,0 l/m² 0 min 0 min 0 W/m² 19,3 km/h (3 Bft) 95,12 %
12.01.2026 07:30 0,8 °C 0,0 °C -2,8 °C 96 % 1011,1 hPa 0,0 l/m² 0 min 0 min 0 W/m² 19,3 km/h (3 Bft) 93,10 %
12.01.2026 07:32 0,8 °C 0,0 °C -2,8 °C 96 % 1011,2 hPa 0,0 l/m² 0 min 0 min 0 W/m² 19,3 km/h (3 Bft) 95,74 %
12.01.2026 07:34 0,8 °C 0,0 °C -2,8 °C 96 % 1011,2 hPa 0,0 l/m² 0 min 0 min 0 W/m² 19,3 km/h (3 Bft) 95,45 %
12.01.2026 07:36 0,8 °C 0,0 °C -2,8 °C 96 % 1011,1 hPa 0,0 l/m² 0 min 0 min 0 W/m² 16,1 km/h (3 Bft) 95,74 %
12.01.2026 07:38 0,8 °C 0,0 °C -3,3 °C 96 % 1011,1 hPa 0,0 l/m² 0 min 0 min 0 W/m² 25,7 km/h (4 Bft) 97,73 %
12.01.2026 07:40 0,8 °C 0,0 °C -2,8 °C 96 % 1011,1 hPa 0,2 l/m² 0 min 0 min 0 W/m² 22,5 km/h (4 Bft) 95,74 %
12.01.2026 07:42 0,8 °C 0,0 °C -2,8 °C 96 % 1011,1 hPa 0,0 l/m² 0 min 0 min 0 W/m² 19,3 km/h (3 Bft) 95,12 %
12.01.2026 07:44 0,8 °C 0,0 °C -2,8 °C 96 % 1011,0 hPa 0,0 l/m² 0 min 0 min 0 W/m² 16,1 km/h (3 Bft) 98,28 %
12.01.2026 07:46 0,8 °C 0,0 °C -2,8 °C 96 % 1011,0 hPa 0,0 l/m² 0 min 0 min 0 W/m² 19,3 km/h (3 Bft) 97,87 %
12.01.2026 07:48 0,8 °C 0,0 °C -2,8 °C 96 % 1011,0 hPa 0,0 l/m² 0 min 2 min 0 W/m² 19,3 km/h (3 Bft) 95,65 %
12.01.2026 07:50 0,8 °C 0,0 °C -2,8 °C 96 % 1011,0 hPa 0,0 l/m² 0 min 0 min 0 W/m² 16,1 km/h (3 Bft) 95,65 %
12.01.2026 07:52 0,8 °C 0,0 °C -2,8 °C 97 % 1011,1 hPa 0,2 l/m² 0 min 0 min 0 W/m² 12,9 km/h (3 Bft) 95,83 %
12.01.2026 07:54 0,8 °C 0,0 °C -2,8 °C 97 % 1011,1 hPa 0,0 l/m² 0 min 0 min 0 W/m² 19,3 km/h (3 Bft) 95,74 %
12.01.2026 07:56 0,9 °C 0,0 °C -2,8 °C 97 % 1011,1 hPa 0,0 l/m² 0 min 2 min 0 W/m² 25,7 km/h (4 Bft) 95,65 %
12.01.2026 07:58 0,8 °C 0,0 °C -2,8 °C 97 % 1011,1 hPa 0,2 l/m² 0 min 2 min 0 W/m² 19,3 km/h (3 Bft) 95,83 %
12.01.2026 08:00 0,9 °C 0,0 °C -2,8 °C 97 % 1011,1 hPa 0,0 l/m² 0 min 2 min 0 W/m² 32,2 km/h (5 Bft) 93,62 %
12.01.2026 08:02 0,9 °C 0,0 °C -2,8 °C 97 % 1011,1 hPa 0,0 l/m² 0 min 0 min 0 W/m² 16,1 km/h (3 Bft) 95,45 %
12.01.2026 08:04 0,9 °C 0,0 °C -2,8 °C 97 % 1011,1 hPa 0,0 l/m² 0 min 0 min 0 W/m² 19,3 km/h (3 Bft) 97,83 %
12.01.2026 08:07 0,9 °C 0,0 °C -2,8 °C 97 % 1011,0 hPa 0,0 l/m² 0 min 0 min 0 W/m² 22,5 km/h (4 Bft) 98,55 %
12.01.2026 08:10 0,9 °C 0,0 °C -2,8 °C 97 % 1011,0 hPa 0,0 l/m² 0 min 0 min 0 W/m² 19,3 km/h (3 Bft) 98,68 %
12.01.2026 08:15 0,9 °C 0,0 °C -2,8 °C 97 % 1011,1 hPa 0,0 l/m² 0 min 0 min 0 W/m² 25,7 km/h (4 Bft) 100,00 %
12.01.2026 08:16 0,9 °C 0,0 °C -2,8 °C 97 % 1011,1 hPa 0,0 l/m² 0 min 0 min 0 W/m² 12,9 km/h (3 Bft) 100,00 %
12.01.2026 08:18 0,9 °C 0,0 °C -2,8 °C 97 % 1011,1 hPa 0,0 l/m² 0 min 0 min 0 W/m² 19,3 km/h (3 Bft) 100,00 %
12.01.2026 08:20 0,9 °C 0,0 °C -2,8 °C 97 % 1011,1 hPa 0,0 l/m² 0 min 0 min 0 W/m² 19,3 km/h (3 Bft) 100,00 %
12.01.2026 08:22 0,9 °C 0,0 °C -2,8 °C 97 % 1011,1 hPa 0,0 l/m² 0 min 0 min 0 W/m² 19,3 km/h (3 Bft) 97,37 %
12.01.2026 08:24 0,9 °C 0,0 °C -2,8 °C 97 % 1011,1 hPa 0,2 l/m² 0 min 0 min 0 W/m² 16,1 km/h (3 Bft) 95,74 %
12.01.2026 08:26 0,9 °C 0,0 °C -2,8 °C 97 % 1011,1 hPa 0,0 l/m² 0 min 0 min 0 W/m² 19,3 km/h (3 Bft) 96,55 %
12.01.2026 08:30 1,0 °C 0,0 °C -2,8 °C 97 % 1011,1 hPa 0,0 l/m² 0 min 0 min 0 W/m² 22,5 km/h (4 Bft) 97,87 %
12.01.2026 08:34 1,0 °C 0,0 °C -2,8 °C 97 % 1011,0 hPa 0,0 l/m² 0 min 0 min 0 W/m² 22,5 km/h (4 Bft) 100,00 %
12.01.2026 08:38 1,0 °C 0,6 °C -2,8 °C 97 % 1011,1 hPa 0,0 l/m² 0 min 0 min 0 W/m² 19,3 km/h (3 Bft) 96,74 %
12.01.2026 08:42 1,1 °C 0,6 °C -2,8 °C 97 % 1011,1 hPa 0,2 l/m² 0 min 0 min 0 W/m² 19,3 km/h (3 Bft) 98,94 %
12.01.2026 08:46 1,1 °C 0,6 °C -2,8 °C 97 % 1011,0 hPa 0,0 l/m² 0 min 0 min 0 W/m² 19,3 km/h (3 Bft) 100,00 %
12.01.2026 08:50 1,1 °C 0,6 °C -2,8 °C 97 % 1011,0 hPa 0,0 l/m² 0 min 0 min 0 W/m² 22,5 km/h (4 Bft) 100,00 %
12.01.2026 08:52 1,1 °C 0,6 °C -2,8 °C 97 % 1011,0 hPa 0,0 l/m² 0 min 0 min 0 W/m² 19,3 km/h (3 Bft) 100,00 %
12.01.2026 08:54 1,1 °C 0,6 °C -2,8 °C 97 % 1011,0 hPa 0,0 l/m² 0 min 0 min 0 W/m² 19,3 km/h (3 Bft) 100,00 %
12.01.2026 08:56 1,1 °C 0,6 °C -2,8 °C 97 % 1011,0 hPa 0,0 l/m² 0 min 0 min 0 W/m² 16,1 km/h (3 Bft) 100,00 %
12.01.2026 08:58 1,1 °C 0,6 °C -2,8 °C 97 % 1011,0 hPa 0,0 l/m² 0 min 0 min 0 W/m² 16,1 km/h (3 Bft) 97,73 %
12.01.2026 09:00 1,1 °C 0,6 °C -2,2 °C 97 % 1011,1 hPa 0,0 l/m² 0 min 0 min 0 W/m² 19,3 km/h (3 Bft) 100,00 %
12.01.2026 09:02 1,1 °C 0,6 °C -2,2 °C 97 % 1011,1 hPa 0,0 l/m² 0 min 0 min 4 W/m² 12,9 km/h (3 Bft) 100,00 %
12.01.2026 09:04 1,1 °C 0,6 °C -2,2 °C 97 % 1011,1 hPa 0,0 l/m² 0 min 0 min 5 W/m² 16,1 km/h (3 Bft) 100,00 %
12.01.2026 09:06 1,1 °C 0,6 °C -2,2 °C 97 % 1011,1 hPa 0,0 l/m² 0 min 0 min 5 W/m² 12,9 km/h (3 Bft) 98,28 %
12.01.2026 09:08 1,1 °C 0,6 °C -2,2 °C 97 % 1011,1 hPa 0,2 l/m² 0 min 0 min 5 W/m² 19,3 km/h (3 Bft) 100,00 %
12.01.2026 09:10 1,1 °C 0,6 °C -2,2 °C 97 % 1011,2 hPa 0,0 l/m² 0 min 0 min 7 W/m² 12,9 km/h (3 Bft) 98,31 %
12.01.2026 09:12 1,2 °C 0,6 °C -2,2 °C 97 % 1011,1 hPa 0,0 l/m² 0 min 0 min 7 W/m² 16,1 km/h (3 Bft) 100,00 %
12.01.2026 09:14 1,2 °C 0,6 °C -2,2 °C 97 % 1011,2 hPa 0,0 l/m² 0 min 0 min 6 W/m² 19,3 km/h (3 Bft) 100,00 %
12.01.2026 09:16 1,2 °C 0,6 °C -2,2 °C 97 % 1011,1 hPa 0,0 l/m² 0 min 0 min 7 W/m² 19,3 km/h (3 Bft) 97,83 %
12.01.2026 09:18 1,2 °C 0,6 °C -2,2 °C 97 % 1011,0 hPa 0,0 l/m² 0 min 0 min 9 W/m² 19,3 km/h (3 Bft) 100,00 %
12.01.2026 09:20 1,2 °C 0,6 °C -2,2 °C 97 % 1011,1 hPa 0,0 l/m² 0 min 0 min 9 W/m² 16,1 km/h (3 Bft) 100,00 %
12.01.2026 09:22 1,2 °C 0,6 °C -2,2 °C 97 % 1011,1 hPa 0,0 l/m² 0 min 0 min 9 W/m² 19,3 km/h (3 Bft) 100,00 %
12.01.2026 09:24 1,2 °C 0,6 °C -2,2 °C 97 % 1011,1 hPa 0,0 l/m² 0 min 0 min 9 W/m² 22,5 km/h (4 Bft) 100,00 %
12.01.2026 09:26 1,2 °C 0,6 °C -2,2 °C 97 % 1011,1 hPa 0,0 l/m² 0 min 0 min 9 W/m² 19,3 km/h (3 Bft) 100,00 %
12.01.2026 09:28 1,2 °C 0,6 °C -2,2 °C 97 % 1011,1 hPa 0,0 l/m² 0 min 0 min 9 W/m² 22,5 km/h (4 Bft) 100,00 %
12.01.2026 09:30 1,3 °C 0,6 °C -2,2 °C 97 % 1011,1 hPa 0,2 l/m² 0 min 0 min 11 W/m² 16,1 km/h (3 Bft) 100,00 %
12.01.2026 09:32 1,3 °C 0,6 °C -2,2 °C 97 % 1011,1 hPa 0,0 l/m² 0 min 0 min 11 W/m² 19,3 km/h (3 Bft) 100,00 %
12.01.2026 09:34 1,3 °C 0,6 °C -2,2 °C 97 % 1011,1 hPa 0,0 l/m² 0 min 0 min 11 W/m² 12,9 km/h (3 Bft) 100,00 %
12.01.2026 09:36 1,3 °C 0,6 °C -2,2 °C 97 % 1011,1 hPa 0,0 l/m² 0 min 0 min 11 W/m² 16,1 km/h (3 Bft) 100,00 %
12.01.2026 09:38 1,3 °C 0,6 °C -2,2 °C 97 % 1011,0 hPa 0,0 l/m² 0 min 0 min 11 W/m² 29,0 km/h (5 Bft) 100,00 %
12.01.2026 09:40 1,3 °C 0,6 °C -2,2 °C 97 % 1011,0 hPa 0,0 l/m² 0 min 0 min 12 W/m² 12,9 km/h (3 Bft) 97,87 %
12.01.2026 09:42 1,3 °C 0,6 °C -2,2 °C 97 % 1011,1 hPa 0,0 l/m² 0 min 0 min 14 W/m² 16,1 km/h (3 Bft) 100,00 %
12.01.2026 09:44 1,3 °C 0,6 °C -2,2 °C 97 % 1011,0 hPa 0,0 l/m² 0 min 0 min 16 W/m² 19,3 km/h (3 Bft) 98,21 %
12.01.2026 09:46 1,3 °C 0,6 °C -2,2 °C 97 % 1011,1 hPa 0,0 l/m² 0 min 0 min 16 W/m² 12,9 km/h (3 Bft) 100,00 %
12.01.2026 09:48 1,3 °C 0,6 °C -2,2 °C 97 % 1011,1 hPa 0,0 l/m² 0 min 0 min 14 W/m² 12,9 km/h (3 Bft) 97,37 %
12.01.2026 09:50 1,3 °C 0,6 °C -2,2 °C 97 % 1011,2 hPa 0,0 l/m² 0 min 0 min 14 W/m² 19,3 km/h (3 Bft) 100,00 %
12.01.2026 09:52 1,4 °C 0,6 °C -2,2 °C 97 % 1011,1 hPa 0,0 l/m² 0 min 0 min 15 W/m² 19,3 km/h (3 Bft) 100,00 %
12.01.2026 09:54 1,4 °C 0,6 °C -2,2 °C 98 % 1011,1 hPa 0,0 l/m² 0 min 0 min 16 W/m² 16,1 km/h (3 Bft) 95,65 %
12.01.2026 09:56 1,4 °C 0,6 °C -2,2 °C 98 % 1011,2 hPa 0,0 l/m² 0 min 0 min 15 W/m² 16,1 km/h (3 Bft) 98,04 %
12.01.2026 09:58 1,4 °C 0,6 °C -2,2 °C 98 % 1011,1 hPa 0,0 l/m² 0 min 0 min 16 W/m² 16,1 km/h (3 Bft) 95,35 %
12.01.2026 10:00 1,4 °C 0,6 °C -2,2 °C 98 % 1011,2 hPa 0,0 l/m² 0 min 0 min 16 W/m² 12,9 km/h (3 Bft) 94,12 %
12.01.2026 10:02 1,4 °C 0,6 °C -2,2 °C 98 % 1011,1 hPa 0,0 l/m² 0 min 0 min 16 W/m² 19,3 km/h (3 Bft) 94,44 %
12.01.2026 10:04 1,4 °C 0,6 °C -2,2 °C 98 % 1011,1 hPa 0,0 l/m² 0 min 0 min 18 W/m² 6,4 km/h (2 Bft) 93,88 %
12.01.2026 10:08 1,4 °C 1,1 °C -2,2 °C 98 % 1011,1 hPa 0,0 l/m² 0 min 0 min 19 W/m² 16,1 km/h (3 Bft) 93,55 %
12.01.2026 10:10 1,4 °C 1,1 °C -2,2 °C 98 % 1011,1 hPa 0,0 l/m² 0 min 0 min 21 W/m² 22,5 km/h (4 Bft) 91,49 %
12.01.2026 10:12 1,5 °C 1,1 °C -2,2 °C 98 % 1011,1 hPa 0,0 l/m² 0 min 0 min 21 W/m² 22,5 km/h (4 Bft) 92,59 %
12.01.2026 10:14 1,5 °C 1,1 °C -2,2 °C 98 % 1011,3 hPa 0,0 l/m² 0 min 0 min 19 W/m² 12,9 km/h (3 Bft) 95,00 %
12.01.2026 10:16 1,5 °C 1,1 °C -2,2 °C 98 % 1011,3 hPa 0,0 l/m² 0 min 0 min 19 W/m² 19,3 km/h (3 Bft) 91,23 %
12.01.2026 10:18 1,5 °C 1,1 °C -2,2 °C 98 % 1011,3 hPa 0,0 l/m² 0 min 0 min 19 W/m² 22,5 km/h (4 Bft) 91,67 %
12.01.2026 10:20 1,5 °C 1,1 °C -2,2 °C 98 % 1011,2 hPa 0,0 l/m² 0 min 0 min 19 W/m² 19,3 km/h (3 Bft) 93,62 %
12.01.2026 10:22 1,6 °C 1,1 °C -2,2 °C 98 % 1011,1 hPa 0,0 l/m² 0 min 0 min 19 W/m² 16,1 km/h (3 Bft) 89,13 %
12.01.2026 10:24 1,6 °C 1,1 °C -2,2 °C 98 % 1011,2 hPa 0,2 l/m² 0 min 0 min 21 W/m² 12,9 km/h (3 Bft) 93,48 %
12.01.2026 10:26 1,6 °C 1,1 °C -1,7 °C 98 % 1011,1 hPa 0,0 l/m² 0 min 0 min 24 W/m² 12,9 km/h (3 Bft) 93,48 %
12.01.2026 10:28 1,6 °C 1,1 °C -2,2 °C 98 % 1011,0 hPa 0,0 l/m² 0 min 0 min 26 W/m² 16,1 km/h (3 Bft) 95,65 %
12.01.2026 10:30 1,6 °C 1,1 °C -2,2 °C 98 % 1011,1 hPa 0,0 l/m² 0 min 0 min 26 W/m² 16,1 km/h (3 Bft) 93,88 %
12.01.2026 10:32 1,6 °C 1,1 °C -2,2 °C 98 % 1011,1 hPa 0,0 l/m² 0 min 0 min 29 W/m² 16,1 km/h (3 Bft) 91,11 %
12.01.2026 10:34 1,6 °C 1,1 °C -1,7 °C 98 % 1011,1 hPa 0,0 l/m² 0 min 0 min 32 W/m² 16,1 km/h (3 Bft) 92,31 %
12.01.2026 10:36 1,6 °C 1,1 °C -1,7 °C 98 % 1011,0 hPa 0,0 l/m² 0 min 0 min 33 W/m² 16,1 km/h (3 Bft) 91,49 %
12.01.2026 10:38 1,6 °C 1,1 °C -1,7 °C 98 % 1011,0 hPa 0,0 l/m² 0 min 0 min 33 W/m² 22,5 km/h (4 Bft) 93,62 %
12.01.2026 10:40 1,6 °C 1,1 °C -1,7 °C 98 % 1011,1 hPa 0,0 l/m² 0 min 0 min 29 W/m² 16,1 km/h (3 Bft) 95,65 %
12.01.2026 10:42 1,6 °C 1,1 °C -1,7 °C 98 % 1011,1 hPa 0,0 l/m² 0 min 0 min 30 W/m² 16,1 km/h (3 Bft) 100,00 %
12.01.2026 10:44 1,6 °C 1,1 °C -1,7 °C 98 % 1011,1 hPa 0,0 l/m² 0 min 0 min 31 W/m² 19,3 km/h (3 Bft) 97,87 %
12.01.2026 10:46 1,6 °C 1,1 °C -1,7 °C 98 % 1011,2 hPa 0,0 l/m² 0 min 0 min 26 W/m² 16,1 km/h (3 Bft) 100,00 %
12.01.2026 10:48 1,6 °C 1,1 °C -1,7 °C 98 % 1011,3 hPa 0,0 l/m² 0 min 0 min 28 W/m² 19,3 km/h (3 Bft) 100,00 %
12.01.2026 10:50 1,6 °C 1,1 °C -1,7 °C 98 % 1011,2 hPa 0,0 l/m² 0 min 0 min 28 W/m² 16,1 km/h (3 Bft) 95,65 %
12.01.2026 10:52 1,7 °C 1,1 °C -1,7 °C 98 % 1011,2 hPa 0,0 l/m² 0 min 0 min 32 W/m² 12,9 km/h (3 Bft) 100,00 %
12.01.2026 10:54 1,7 °C 1,1 °C -1,7 °C 98 % 1011,2 hPa 0,0 l/m² 0 min 0 min 32 W/m² 19,3 km/h (3 Bft) 100,00 %
12.01.2026 10:56 1,7 °C 1,1 °C -1,7 °C 98 % 1011,3 hPa 0,0 l/m² 0 min 0 min 32 W/m² 19,3 km/h (3 Bft) 100,00 %
12.01.2026 10:58 1,7 °C 1,1 °C -1,7 °C 98 % 1011,2 hPa 0,0 l/m² 0 min 0 min 34 W/m² 19,3 km/h (3 Bft) 100,00 %
12.01.2026 11:00 1,7 °C 1,1 °C -1,7 °C 98 % 1011,3 hPa 0,2 l/m² 0 min 0 min 38 W/m² 12,9 km/h (3 Bft) 100,00 %
12.01.2026 11:02 1,7 °C 1,1 °C -1,7 °C 98 % 1011,2 hPa 0,0 l/m² 0 min 0 min 33 W/m² 16,1 km/h (3 Bft) 100,00 %
12.01.2026 11:04 1,7 °C 1,1 °C -1,7 °C 98 % 1011,1 hPa 0,0 l/m² 0 min 0 min 34 W/m² 29,0 km/h (5 Bft) 100,00 %
12.01.2026 11:08 1,7 °C 1,1 °C -1,7 °C 98 % 1011,0 hPa 0,0 l/m² 0 min 0 min 28 W/m² 22,5 km/h (4 Bft) 98,94 %
12.01.2026 11:10 1,8 °C 1,1 °C -1,7 °C 98 % 1011,1 hPa 0,0 l/m² 0 min 0 min 26 W/m² 29,0 km/h (5 Bft) 100,00 %
12.01.2026 11:12 1,8 °C 1,1 °C -1,7 °C 98 % 1011,1 hPa 0,0 l/m² 0 min 0 min 29 W/m² 22,5 km/h (4 Bft) 100,00 %
12.01.2026 11:14 1,8 °C 1,1 °C -1,7 °C 98 % 1011,1 hPa 0,0 l/m² 0 min 0 min 31 W/m² 16,1 km/h (3 Bft) 97,83 %
12.01.2026 11:16 1,8 °C 1,1 °C -1,7 °C 98 % 1011,1 hPa 0,0 l/m² 0 min 0 min 41 W/m² 12,9 km/h (3 Bft) 100,00 %
12.01.2026 11:18 1,8 °C 1,1 °C -1,7 °C 98 % 1011,1 hPa 0,0 l/m² 0 min 0 min 40 W/m² 16,1 km/h (3 Bft) 100,00 %
12.01.2026 11:20 1,8 °C 1,1 °C -1,7 °C 98 % 1011,0 hPa 0,0 l/m² 0 min 0 min 47 W/m² 12,9 km/h (3 Bft) 100,00 %
12.01.2026 11:22 1,8 °C 1,1 °C -1,7 °C 98 % 1011,0 hPa 0,0 l/m² 0 min 0 min 50 W/m² 12,9 km/h (3 Bft) 100,00 %
12.01.2026 11:24 1,8 °C 1,1 °C -1,7 °C 98 % 1011,0 hPa 0,0 l/m² 0 min 0 min 60 W/m² 19,3 km/h (3 Bft) 100,00 %
12.01.2026 11:26 1,8 °C 1,1 °C -1,7 °C 98 % 1011,0 hPa 0,0 l/m² 0 min 0 min 58 W/m² 19,3 km/h (3 Bft) 97,87 %
12.01.2026 11:28 1,8 °C 1,1 °C -1,7 °C 98 % 1011,0 hPa 0,0 l/m² 0 min 0 min 46 W/m² 12,9 km/h (3 Bft) 100,00 %
12.01.2026 11:30 1,8 °C 1,1 °C -1,7 °C 98 % 1011,0 hPa 0,0 l/m² 0 min 0 min 51 W/m² 19,3 km/h (3 Bft) 97,22 %
12.01.2026 11:32 1,9 °C 1,1 °C -1,7 °C 98 % 1011,0 hPa 0,0 l/m² 0 min 0 min 46 W/m² 29,0 km/h (5 Bft) 97,87 %
12.01.2026 11:34 1,9 °C 1,7 °C -1,7 °C 98 % 1011,0 hPa 0,0 l/m² 0 min 0 min 60 W/m² 16,1 km/h (3 Bft) 97,87 %
12.01.2026 11:36 1,9 °C 1,7 °C -1,7 °C 98 % 1010,9 hPa 0,0 l/m² 0 min 0 min 41 W/m² 16,1 km/h (3 Bft) 97,87 %
12.01.2026 11:38 1,9 °C 1,7 °C -1,7 °C 98 % 1010,9 hPa 0,0 l/m² 0 min 0 min 34 W/m² 16,1 km/h (3 Bft) 100,00 %
12.01.2026 11:40 1,9 °C 1,7 °C -1,7 °C 98 % 1010,9 hPa 0,0 l/m² 0 min 0 min 35 W/m² 12,9 km/h (3 Bft) 100,00 %
12.01.2026 11:42 1,9 °C 1,7 °C -1,7 °C 98 % 1010,9 hPa 0,0 l/m² 0 min 0 min 33 W/m² 16,1 km/h (3 Bft) 40,00 %
12.01.2026 11:44 1,9 °C 1,7 °C -1,7 °C 98 % 1010,8 hPa 0,0 l/m² 0 min 0 min 35 W/m² 16,1 km/h (3 Bft) 100,00 %
12.01.2026 11:46 1,9 °C 1,7 °C -1,7 °C 98 % 1010,8 hPa 0,0 l/m² 0 min 0 min 39 W/m² 12,9 km/h (3 Bft) 100,00 %
12.01.2026 11:48 1,9 °C 1,7 °C -1,7 °C 98 % 1010,8 hPa 0,0 l/m² 0 min 0 min 44 W/m² 12,9 km/h (3 Bft) 100,00 %
12.01.2026 11:50 2,0 °C 1,7 °C -1,1 °C 98 % 1010,8 hPa 0,0 l/m² 0 min 0 min 49 W/m² 19,3 km/h (3 Bft) 97,83 %
12.01.2026 11:52 2,0 °C 1,7 °C -1,1 °C 98 % 1010,7 hPa 0,0 l/m² 0 min 0 min 42 W/m² 16,1 km/h (3 Bft) 97,87 %
12.01.2026 11:54 2,0 °C 1,7 °C -1,1 °C 98 % 1010,7 hPa 0,0 l/m² 0 min 0 min 31 W/m² 12,9 km/h (3 Bft) 100,00 %
12.01.2026 11:56 2,0 °C 1,7 °C -1,1 °C 98 % 1010,6 hPa 0,0 l/m² 0 min 0 min 29 W/m² 12,9 km/h (3 Bft) 100,00 %
12.01.2026 11:58 2,1 °C 1,7 °C -1,1 °C 98 % 1010,5 hPa 0,0 l/m² 0 min 0 min 33 W/m² 12,9 km/h (3 Bft) 98,00 %
12.01.2026 12:00 2,1 °C 1,7 °C -1,1 °C 98 % 1010,5 hPa 0,0 l/m² 0 min 0 min 37 W/m² 19,3 km/h (3 Bft) 100,00 %
12.01.2026 12:02 2,1 °C 1,7 °C -1,1 °C 98 % 1010,5 hPa 0,0 l/m² 0 min 0 min 41 W/m² 12,9 km/h (3 Bft) 97,83 %
12.01.2026 12:04 2,1 °C 1,7 °C -1,1 °C 98 % 1010,4 hPa 0,0 l/m² 0 min 0 min 52 W/m² 19,3 km/h (3 Bft) 97,87 %
12.01.2026 12:08 2,1 °C 1,7 °C -1,1 °C 98 % 1010,5 hPa 0,2 l/m² 0 min 0 min 59 W/m² 25,7 km/h (4 Bft) 97,89 %
12.01.2026 12:09 2,1 °C 1,7 °C -1,1 °C 98 % 1010,5 hPa 0,0 l/m² 0 min 0 min 42 W/m² 16,1 km/h (3 Bft) 100,00 %
12.01.2026 12:10 2,1 °C 1,7 °C -1,1 °C 98 % 1010,5 hPa 0,0 l/m² 0 min 0 min 43 W/m² 6,4 km/h (2 Bft) 95,83 %
12.01.2026 12:14 2,2 °C 1,7 °C -1,1 °C 98 % 1010,5 hPa 0,0 l/m² 0 min 0 min 48 W/m² 9,7 km/h (2 Bft) 98,11 %
12.01.2026 12:16 2,2 °C 1,7 °C -1,1 °C 98 % 1010,5 hPa 0,0 l/m² 0 min 0 min 60 W/m² 16,1 km/h (3 Bft) 98,00 %
12.01.2026 12:18 2,2 °C 1,7 °C -1,1 °C 98 % 1010,5 hPa 0,0 l/m² 0 min 0 min 69 W/m² 16,1 km/h (3 Bft) 97,22 %
12.01.2026 12:20 2,2 °C 2,2 °C -1,1 °C 98 % 1010,4 hPa 0,0 l/m² 0 min 0 min 94 W/m² 12,9 km/h (3 Bft) 97,92 %
12.01.2026 12:22 2,2 °C 2,2 °C -1,1 °C 98 % 1010,3 hPa 0,0 l/m² 0 min 0 min 105 W/m² 9,7 km/h (2 Bft) 97,87 %
12.01.2026 12:24 2,3 °C 2,2 °C -1,1 °C 98 % 1010,3 hPa 0,0 l/m² 0 min 0 min 114 W/m² 16,1 km/h (3 Bft) 96,30 %
12.01.2026 12:26 2,3 °C 2,2 °C -1,1 °C 98 % 1010,3 hPa 0,0 l/m² 0 min 0 min 128 W/m² 12,9 km/h (3 Bft) 92,11 %
12.01.2026 12:30 2,4 °C 2,2 °C -0,6 °C 99 % 1010,2 hPa 0,0 l/m² 0 min 0 min 123 W/m² 19,3 km/h (3 Bft) 98,08 %
12.01.2026 12:32 2,4 °C 2,2 °C -0,6 °C 99 % 1010,2 hPa 0,0 l/m² 0 min 0 min 109 W/m² 16,1 km/h (3 Bft) 94,74 %
12.01.2026 12:34 2,4 °C 2,2 °C -0,6 °C 99 % 1010,2 hPa 0,0 l/m² 0 min 0 min 104 W/m² 19,3 km/h (3 Bft) 96,30 %
12.01.2026 12:36 2,5 °C 2,2 °C -0,6 °C 99 % 1010,2 hPa 0,0 l/m² 0 min 0 min 94 W/m² 22,5 km/h (4 Bft) 97,44 %
12.01.2026 12:38 2,5 °C 2,2 °C -0,6 °C 99 % 1010,2 hPa 0,0 l/m² 0 min 0 min 73 W/m² 19,3 km/h (3 Bft) 97,87 %
12.01.2026 12:40 2,6 °C 2,2 °C -0,6 °C 98 % 1010,3 hPa 0,0 l/m² 0 min 0 min 63 W/m² 16,1 km/h (3 Bft) 95,74 %
12.01.2026 12:42 2,6 °C 2,2 °C -0,6 °C 98 % 1010,3 hPa 0,0 l/m² 0 min 0 min 52 W/m² 12,9 km/h (3 Bft) 97,87 %
12.01.2026 12:44 2,6 °C 2,2 °C -0,6 °C 99 % 1010,3 hPa 0,0 l/m² 0 min 0 min 42 W/m² 12,9 km/h (3 Bft) 98,21 %
12.01.2026 12:46 2,6 °C 2,2 °C -0,6 °C 98 % 1010,3 hPa 0,0 l/m² 0 min 0 min 37 W/m² 19,3 km/h (3 Bft) 94,74 %
12.01.2026 12:48 2,6 °C 2,2 °C -0,6 °C 98 % 1010,3 hPa 0,0 l/m² 0 min 0 min 35 W/m² 12,9 km/h (3 Bft) 95,65 %
12.01.2026 12:50 2,6 °C 2,2 °C -0,6 °C 99 % 1010,2 hPa 0,0 l/m² 0 min 0 min 35 W/m² 9,7 km/h (2 Bft) 96,30 %
12.01.2026 12:52 2,6 °C 2,2 °C -0,6 °C 99 % 1010,2 hPa 0,0 l/m² 0 min 0 min 42 W/m² 12,9 km/h (3 Bft) 97,50 %
12.01.2026 12:54 2,6 °C 2,2 °C -0,6 °C 99 % 1010,2 hPa 0,0 l/m² 0 min 0 min 51 W/m² 12,9 km/h (3 Bft) 95,74 %
12.01.2026 12:56 2,6 °C 2,2 °C -0,6 °C 99 % 1010,2 hPa 0,0 l/m² 0 min 0 min 54 W/m² 12,9 km/h (3 Bft) 92,86 %
12.01.2026 12:58 2,6 °C 2,2 °C -0,6 °C 98 % 1010,2 hPa 0,0 l/m² 0 min 0 min 71 W/m² 12,9 km/h (3 Bft) 97,37 %
12.01.2026 13:00 2,6 °C 2,8 °C -0,6 °C 98 % 1010,1 hPa 0,0 l/m² 0 min 0 min 75 W/m² 6,4 km/h (2 Bft) 94,34 %
12.01.2026 13:02 2,7 °C 2,8 °C -0,6 °C 98 % 1010,1 hPa 0,0 l/m² 0 min 0 min 81 W/m² 16,1 km/h (3 Bft) 95,00 %
12.01.2026 13:04 2,7 °C 2,8 °C -0,6 °C 98 % 1010,1 hPa 0,0 l/m² 0 min 0 min 76 W/m² 16,1 km/h (3 Bft) 95,74 %
12.01.2026 13:06 2,7 °C 2,8 °C -0,6 °C 98 % 1010,1 hPa 0,0 l/m² 0 min 0 min 77 W/m² 12,9 km/h (3 Bft) 96,43 %
12.01.2026 13:08 2,7 °C 2,8 °C -0,6 °C 98 % 1010,1 hPa 0,0 l/m² 0 min 0 min 84 W/m² 9,7 km/h (2 Bft) 94,74 %
12.01.2026 13:10 2,8 °C 2,8 °C -0,6 °C 98 % 1010,1 hPa 0,0 l/m² 0 min 0 min 89 W/m² 16,1 km/h (3 Bft) 96,23 %
12.01.2026 13:12 2,8 °C 2,8 °C -0,6 °C 98 % 1010,2 hPa 0,0 l/m² 0 min 0 min 83 W/m² 9,7 km/h (2 Bft) 95,00 %
12.01.2026 13:14 2,8 °C 2,8 °C -0,6 °C 99 % 1010,1 hPa 0,0 l/m² 0 min 0 min 82 W/m² 12,9 km/h (3 Bft) 93,62 %
12.01.2026 13:16 2,8 °C 2,8 °C -0,6 °C 99 % 1010,1 hPa 0,0 l/m² 0 min 0 min 77 W/m² 6,4 km/h (2 Bft) 96,36 %
12.01.2026 13:18 2,8 °C 2,8 °C -0,6 °C 99 % 1010,1 hPa 0,0 l/m² 0 min 0 min 69 W/m² 12,9 km/h (3 Bft) 97,44 %
12.01.2026 13:20 2,9 °C 2,8 °C -0,6 °C 99 % 1010,1 hPa 0,0 l/m² 0 min 0 min 50 W/m² 12,9 km/h (3 Bft) 97,87 %
12.01.2026 13:22 2,9 °C 2,8 °C -0,6 °C 99 % 1010,0 hPa 0,0 l/m² 0 min 0 min 47 W/m² 12,9 km/h (3 Bft) 98,15 %
12.01.2026 13:24 2,9 °C 2,8 °C -0,6 °C 99 % 1010,0 hPa 0,0 l/m² 0 min 0 min 58 W/m² 12,9 km/h (3 Bft) 97,44 %
12.01.2026 13:26 2,9 °C 2,8 °C -0,6 °C 99 % 1010,0 hPa 0,0 l/m² 0 min 0 min 63 W/m² 16,1 km/h (3 Bft) 97,87 %
12.01.2026 13:28 2,9 °C 2,8 °C -0,6 °C 99 % 1010,0 hPa 0,0 l/m² 0 min 0 min 66 W/m² 19,3 km/h (3 Bft) 96,49 %
12.01.2026 13:30 2,9 °C 2,8 °C -0,6 °C 99 % 1010,0 hPa 0,0 l/m² 0 min 0 min 60 W/m² 19,3 km/h (3 Bft) 100,00 %
12.01.2026 13:32 2,9 °C 2,8 °C -0,6 °C 99 % 1010,1 hPa 0,0 l/m² 0 min 0 min 51 W/m² 16,1 km/h (3 Bft) 95,74 %
12.01.2026 13:34 2,9 °C 2,8 °C -0,6 °C 99 % 1010,0 hPa 0,0 l/m² 0 min 0 min 56 W/m² 19,3 km/h (3 Bft) 98,18 %
12.01.2026 13:36 2,9 °C 2,8 °C -0,6 °C 99 % 1009,9 hPa 0,0 l/m² 0 min 0 min 61 W/m² 16,1 km/h (3 Bft) 100,00 %
12.01.2026 13:38 2,9 °C 2,8 °C -0,6 °C 99 % 1010,0 hPa 0,0 l/m² 0 min 0 min 54 W/m² 19,3 km/h (3 Bft) 100,00 %
12.01.2026 13:40 2,9 °C 2,8 °C -0,6 °C 99 % 1009,9 hPa 0,0 l/m² 0 min 0 min 58 W/m² 12,9 km/h (3 Bft) 100,00 %
12.01.2026 13:42 2,9 °C 2,8 °C -0,6 °C 99 % 1010,0 hPa 0,0 l/m² 0 min 0 min 53 W/m² 19,3 km/h (3 Bft) 100,00 %
12.01.2026 13:44 2,9 °C 2,8 °C -0,6 °C 99 % 1009,9 hPa 0,0 l/m² 0 min 0 min 52 W/m² 16,1 km/h (3 Bft) 100,00 %
12.01.2026 13:46 3,0 °C 2,8 °C -0,6 °C 99 % 1009,8 hPa 0,0 l/m² 0 min 0 min 56 W/m² 16,1 km/h (3 Bft) 100,00 %
12.01.2026 13:48 3,0 °C 2,8 °C -0,6 °C 99 % 1009,8 hPa 0,0 l/m² 0 min 0 min 63 W/m² 16,1 km/h (3 Bft) 100,00 %
12.01.2026 13:50 3,0 °C 2,8 °C -0,6 °C 99 % 1009,7 hPa 0,0 l/m² 0 min 0 min 71 W/m² 16,1 km/h (3 Bft) 100,00 %
12.01.2026 13:52 3,0 °C 2,8 °C 0,0 °C 99 % 1009,8 hPa 0,0 l/m² 0 min 0 min 58 W/m² 16,1 km/h (3 Bft) 98,15 %
12.01.2026 13:54 3,1 °C 2,8 °C 0,0 °C 99 % 1009,8 hPa 0,0 l/m² 0 min 0 min 58 W/m² 12,9 km/h (3 Bft) 97,96 %
12.01.2026 13:56 3,1 °C 2,8 °C 0,0 °C 99 % 1009,9 hPa 0,0 l/m² 0 min 0 min 54 W/m² 12,9 km/h (3 Bft) 100,00 %
12.01.2026 13:58 3,1 °C 2,8 °C 0,0 °C 99 % 1009,8 hPa 0,0 l/m² 0 min 0 min 50 W/m² 16,1 km/h (3 Bft) 97,87 %
12.01.2026 14:00 3,1 °C 2,8 °C 0,0 °C 99 % 1009,8 hPa 0,0 l/m² 0 min 0 min 47 W/m² 12,9 km/h (3 Bft) 98,18 %
12.01.2026 14:02 3,1 °C 2,8 °C 0,0 °C 99 % 1009,8 hPa 0,0 l/m² 0 min 0 min 47 W/m² 22,5 km/h (4 Bft) 97,37 %
12.01.2026 14:04 3,1 °C 2,8 °C 0,0 °C 99 % 1009,7 hPa 0,0 l/m² 0 min 0 min 49 W/m² 19,3 km/h (3 Bft) 97,87 %
12.01.2026 14:06 3,2 °C 2,8 °C 0,0 °C 99 % 1009,9 hPa 0,0 l/m² 0 min 0 min 54 W/m² 12,9 km/h (3 Bft) 98,11 %
12.01.2026 14:08 3,2 °C 2,8 °C 0,0 °C 99 % 1009,8 hPa 0,0 l/m² 0 min 0 min 56 W/m² 16,1 km/h (3 Bft) 96,08 %
12.01.2026 14:10 3,2 °C 2,8 °C 0,0 °C 99 % 1009,8 hPa 0,0 l/m² 0 min 0 min 59 W/m² 16,1 km/h (3 Bft) 100,00 %
12.01.2026 14:12 3,2 °C 3,3 °C 0,0 °C 99 % 1009,8 hPa 0,0 l/m² 0 min 0 min 65 W/m² 16,1 km/h (3 Bft) 97,87 %
12.01.2026 14:14 3,2 °C 3,3 °C 0,0 °C 99 % 1009,9 hPa 0,0 l/m² 0 min 0 min 62 W/m² 19,3 km/h (3 Bft) 96,49 %
12.01.2026 14:16 3,2 °C 3,3 °C 0,0 °C 99 % 1009,9 hPa 0,0 l/m² 0 min 0 min 56 W/m² 19,3 km/h (3 Bft) 97,30 %
12.01.2026 14:18 3,3 °C 3,3 °C 0,0 °C 99 % 1009,9 hPa 0,0 l/m² 0 min 0 min 45 W/m² 16,1 km/h (3 Bft) 97,87 %
12.01.2026 14:20 3,3 °C 3,3 °C 0,0 °C 99 % 1009,9 hPa 0,0 l/m² 0 min 0 min 46 W/m² 16,1 km/h (3 Bft) 98,18 %
12.01.2026 14:22 3,3 °C 3,3 °C 0,0 °C 99 % 1009,9 hPa 0,0 l/m² 0 min 0 min 45 W/m² 9,7 km/h (2 Bft) 97,37 %
12.01.2026 14:24 3,3 °C 3,3 °C 0,0 °C 99 % 1009,8 hPa 0,0 l/m² 0 min 0 min 40 W/m² 16,1 km/h (3 Bft) 97,87 %
12.01.2026 14:26 3,3 °C 3,3 °C 0,0 °C 99 % 1009,9 hPa 0,0 l/m² 0 min 0 min 39 W/m² 12,9 km/h (3 Bft) 96,36 %
12.01.2026 14:28 3,3 °C 3,3 °C 0,0 °C 99 % 1009,8 hPa 0,0 l/m² 0 min 0 min 40 W/m² 16,1 km/h (3 Bft) 97,37 %
12.01.2026 14:30 3,3 °C 3,3 °C 0,0 °C 99 % 1009,7 hPa 0,0 l/m² 0 min 0 min 39 W/m² 16,1 km/h (3 Bft) 100,00 %
12.01.2026 14:32 3,4 °C 3,3 °C 0,0 °C 99 % 1009,7 hPa 0,0 l/m² 0 min 0 min 35 W/m² 16,1 km/h (3 Bft) 100,00 %
12.01.2026 14:34 3,3 °C 3,3 °C 0,0 °C 99 % 1009,6 hPa 0,0 l/m² 0 min 0 min 35 W/m² 19,3 km/h (3 Bft) 100,00 %
12.01.2026 14:36 3,4 °C 3,3 °C 0,0 °C 99 % 1009,6 hPa 0,0 l/m² 0 min 0 min 35 W/m² 16,1 km/h (3 Bft) 100,00 %
12.01.2026 14:38 3,4 °C 3,3 °C 0,0 °C 99 % 1009,5 hPa 0,0 l/m² 0 min 0 min 39 W/m² 19,3 km/h (3 Bft) 100,00 %
12.01.2026 14:40 3,4 °C 3,3 °C 0,0 °C 99 % 1009,5 hPa 0,0 l/m² 0 min 0 min 35 W/m² 19,3 km/h (3 Bft) 100,00 %
12.01.2026 14:42 3,4 °C 3,3 °C 0,0 °C 99 % 1009,4 hPa 0,0 l/m² 0 min 0 min 33 W/m² 16,1 km/h (3 Bft) 100,00 %
12.01.2026 14:44 3,4 °C 3,3 °C 0,0 °C 99 % 1009,4 hPa 0,0 l/m² 0 min 0 min 32 W/m² 16,1 km/h (3 Bft) 100,00 %
12.01.2026 14:46 3,4 °C 3,3 °C 0,0 °C 99 % 1009,4 hPa 0,0 l/m² 0 min 0 min 32 W/m² 19,3 km/h (3 Bft) 100,00 %
12.01.2026 14:48 3,4 °C 3,3 °C 0,0 °C 99 % 1009,4 hPa 0,0 l/m² 0 min 0 min 30 W/m² 16,1 km/h (3 Bft) 100,00 %
12.01.2026 14:50 3,4 °C 3,3 °C 0,0 °C 99 % 1009,4 hPa 0,0 l/m² 0 min 0 min 25 W/m² 9,7 km/h (2 Bft) 100,00 %
12.01.2026 14:52 3,4 °C 3,3 °C 0,0 °C 99 % 1009,5 hPa 0,0 l/m² 0 min 0 min 21 W/m² 12,9 km/h (3 Bft) 96,43 %
12.01.2026 14:54 3,4 °C 3,3 °C 0,0 °C 99 % 1009,4 hPa 0,0 l/m² 0 min 0 min 21 W/m² 16,1 km/h (3 Bft) 100,00 %
12.01.2026 14:56 3,4 °C 3,3 °C 0,0 °C 99 % 1009,4 hPa 0,0 l/m² 0 min 0 min 25 W/m² 16,1 km/h (3 Bft) 100,00 %
12.01.2026 14:58 3,5 °C 3,3 °C 0,0 °C 99 % 1009,4 hPa 0,0 l/m² 0 min 2 min 23 W/m² 19,3 km/h (3 Bft) 97,37 %
12.01.2026 15:00 3,5 °C 3,3 °C 0,0 °C 99 % 1009,4 hPa 0,0 l/m² 0 min 0 min 25 W/m² 12,9 km/h (3 Bft) 100,00 %
12.01.2026 15:02 3,5 °C 3,3 °C 0,0 °C 99 % 1009,4 hPa 0,0 l/m² 0 min 0 min 26 W/m² 16,1 km/h (3 Bft) 96,36 %
12.01.2026 15:04 3,5 °C 3,3 °C 0,0 °C 99 % 1009,4 hPa 0,0 l/m² 0 min 2 min 26 W/m² 19,3 km/h (3 Bft) 100,00 %
12.01.2026 15:06 3,6 °C 3,3 °C 0,0 °C 99 % 1009,3 hPa 0,0 l/m² 0 min 2 min 27 W/m² 19,3 km/h (3 Bft) 100,00 %
12.01.2026 15:08 3,6 °C 3,3 °C 0,0 °C 99 % 1009,2 hPa 0,0 l/m² 0 min 0 min 27 W/m² 19,3 km/h (3 Bft) 98,11 %
12.01.2026 15:10 3,6 °C 3,3 °C 0,0 °C 99 % 1009,3 hPa 0,0 l/m² 0 min 2 min 26 W/m² 12,9 km/h (3 Bft) 92,00 %
12.01.2026 15:12 3,6 °C 3,3 °C 0,0 °C 99 % 1009,2 hPa 0,2 l/m² 0 min 2 min 26 W/m² 12,9 km/h (3 Bft) 100,00 %
12.01.2026 15:14 3,6 °C 3,3 °C 0,0 °C 99 % 1009,1 hPa 0,0 l/m² 0 min 0 min 27 W/m² 19,3 km/h (3 Bft) 97,87 %
12.01.2026 15:16 3,6 °C 3,3 °C 0,0 °C 99 % 1009,2 hPa 0,0 l/m² 0 min 0 min 28 W/m² 12,9 km/h (3 Bft) 96,30 %
12.01.2026 15:18 3,6 °C 3,3 °C 0,0 °C 99 % 1009,2 hPa 0,0 l/m² 0 min 2 min 30 W/m² 16,1 km/h (3 Bft) 97,44 %
12.01.2026 15:20 3,6 °C 3,3 °C 0,0 °C 99 % 1009,2 hPa 0,0 l/m² 0 min 0 min 26 W/m² 12,9 km/h (3 Bft) 97,92 %
12.01.2026 15:22 3,6 °C 3,3 °C 0,0 °C 99 % 1009,2 hPa 0,0 l/m² 0 min 0 min 23 W/m² 9,7 km/h (2 Bft) 97,78 %
12.01.2026 15:24 3,6 °C 3,3 °C 0,0 °C 99 % 1009,2 hPa 0,0 l/m² 0 min 2 min 21 W/m² 12,9 km/h (3 Bft) 97,92 %
12.01.2026 15:26 3,6 °C 3,3 °C 0,0 °C 99 % 1009,2 hPa 0,0 l/m² 0 min 0 min 20 W/m² 16,1 km/h (3 Bft) 95,74 %
12.01.2026 15:28 3,6 °C 3,3 °C 0,0 °C 99 % 1009,3 hPa 0,0 l/m² 0 min 0 min 18 W/m² 12,9 km/h (3 Bft) 98,21 %
12.01.2026 15:30 3,7 °C 3,3 °C 0,0 °C 99 % 1009,3 hPa 0,0 l/m² 0 min 2 min 16 W/m² 9,7 km/h (2 Bft) 97,37 %
12.01.2026 15:32 3,7 °C 3,3 °C 0,0 °C 99 % 1009,3 hPa 0,0 l/m² 0 min 2 min 14 W/m² 12,9 km/h (3 Bft) 98,11 %
12.01.2026 15:34 3,7 °C 3,3 °C 0,0 °C 99 % 1009,3 hPa 0,0 l/m² 0 min 2 min 14 W/m² 16,1 km/h (3 Bft) 96,00 %
12.01.2026 15:36 3,7 °C 3,3 °C 0,0 °C 99 % 1009,3 hPa 0,2 l/m² 0 min 2 min 14 W/m² 6,4 km/h (2 Bft) 97,30 %
12.01.2026 15:38 3,7 °C 3,3 °C 0,0 °C 99 % 1009,2 hPa 0,0 l/m² 0 min 0 min 14 W/m² 12,9 km/h (3 Bft) 100,00 %
12.01.2026 15:40 3,7 °C 3,3 °C 0,0 °C 99 % 1009,2 hPa 0,0 l/m² 0 min 0 min 13 W/m² 12,9 km/h (3 Bft) 97,44 %
12.01.2026 15:42 3,7 °C 3,3 °C 0,0 °C 99 % 1009,2 hPa 0,0 l/m² 0 min 2 min 11 W/m² 12,9 km/h (3 Bft) 95,83 %
12.01.2026 15:44 3,7 °C 3,3 °C 0,0 °C 99 % 1009,2 hPa 0,2 l/m² 0 min 2 min 11 W/m² 12,9 km/h (3 Bft) 94,34 %
12.01.2026 15:46 3,8 °C 3,3 °C 0,0 °C 99 % 1009,2 hPa 0,0 l/m² 0 min 2 min 11 W/m² 12,9 km/h (3 Bft) 97,44 %
12.01.2026 15:48 3,8 °C 3,3 °C 0,6 °C 99 % 1009,1 hPa 0,0 l/m² 0 min 2 min 11 W/m² 12,9 km/h (3 Bft) 95,83 %
12.01.2026 15:50 3,8 °C 3,3 °C 0,6 °C 99 % 1009,0 hPa 0,2 l/m² 0 min 2 min 9 W/m² 6,4 km/h (2 Bft) 95,74 %
12.01.2026 15:52 3,8 °C 3,3 °C 0,0 °C 99 % 1009,0 hPa 0,0 l/m² 0 min 2 min 9 W/m² 12,9 km/h (3 Bft) 96,36 %
12.01.2026 15:54 3,8 °C 3,3 °C 0,6 °C 99 % 1009,0 hPa 0,0 l/m² 0 min 2 min 9 W/m² 16,1 km/h (3 Bft) 97,37 %
12.01.2026 15:56 3,8 °C 3,3 °C 0,6 °C 99 % 1009,0 hPa 0,0 l/m² 0 min 2 min 9 W/m² 12,9 km/h (3 Bft) 97,87 %
12.01.2026 15:58 3,8 °C 3,3 °C 0,6 °C 99 % 1009,0 hPa 0,2 l/m² 0 min 2 min 9 W/m² 19,3 km/h (3 Bft) 94,44 %
12.01.2026 16:00 3,8 °C 3,3 °C 0,6 °C 99 % 1009,0 hPa 0,0 l/m² 0 min 2 min 7 W/m² 12,9 km/h (3 Bft) 97,44 %
12.01.2026 16:02 3,9 °C 3,3 °C 0,6 °C 99 % 1009,0 hPa 0,0 l/m² 0 min 2 min 7 W/m² 12,9 km/h (3 Bft) 93,75 %
12.01.2026 16:04 3,9 °C 3,3 °C 0,6 °C 99 % 1008,9 hPa 0,2 l/m² 0 min 2 min 7 W/m² 12,9 km/h (3 Bft) 93,75 %
12.01.2026 16:06 3,9 °C 3,3 °C 0,6 °C 99 % 1008,9 hPa 0,0 l/m² 0 min 2 min 9 W/m² 19,3 km/h (3 Bft) 94,44 %
12.01.2026 16:08 3,9 °C 3,3 °C 0,6 °C 99 % 1008,9 hPa 0,0 l/m² 0 min 2 min 7 W/m² 16,1 km/h (3 Bft) 96,00 %
12.01.2026 16:10 3,9 °C 3,3 °C 0,6 °C 99 % 1008,9 hPa 0,0 l/m² 0 min 2 min 6 W/m² 12,9 km/h (3 Bft) 94,44 %
12.01.2026 16:12 3,9 °C 3,3 °C 0,6 °C 99 % 1008,9 hPa 0,0 l/m² 0 min 0 min 5 W/m² 16,1 km/h (3 Bft) 96,36 %
12.01.2026 16:14 3,9 °C 3,3 °C 0,6 °C 99 % 1008,8 hPa 0,0 l/m² 0 min 2 min 5 W/m² 12,9 km/h (3 Bft) 92,31 %
12.01.2026 16:16 4,0 °C 3,3 °C 0,6 °C 99 % 1008,8 hPa 0,2 l/m² 0 min 2 min 4 W/m² 22,5 km/h (4 Bft) 94,34 %
12.01.2026 16:18 4,0 °C 3,3 °C 0,6 °C 99 % 1008,9 hPa 0,0 l/m² 0 min 0 min 0 W/m² 19,3 km/h (3 Bft) 94,74 %
12.01.2026 16:20 4,0 °C 3,3 °C 0,6 °C 99 % 1008,9 hPa 0,0 l/m² 0 min 0 min 0 W/m² 22,5 km/h (4 Bft) 93,88 %
12.01.2026 16:22 4,0 °C 3,3 °C 0,6 °C 99 % 1008,8 hPa 0,0 l/m² 0 min 2 min 0 W/m² 16,1 km/h (3 Bft) 93,62 %
12.01.2026 16:24 4,1 °C 3,3 °C 0,6 °C 99 % 1008,8 hPa 0,0 l/m² 0 min 0 min 0 W/m² 12,9 km/h (3 Bft) 97,87 %
12.01.2026 16:26 4,1 °C 3,3 °C 0,6 °C 99 % 1008,7 hPa 0,0 l/m² 0 min 2 min 0 W/m² 12,9 km/h (3 Bft) 95,74 %
12.01.2026 16:28 4,1 °C 3,3 °C 0,6 °C 99 % 1008,8 hPa 0,0 l/m² 0 min 2 min 0 W/m² 19,3 km/h (3 Bft) 97,87 %
12.01.2026 16:30 4,1 °C 3,3 °C 0,6 °C 99 % 1008,7 hPa 0,2 l/m² 0 min 2 min 0 W/m² 9,7 km/h (2 Bft) 97,87 %
12.01.2026 16:32 4,1 °C 3,3 °C 0,6 °C 99 % 1008,7 hPa 0,0 l/m² 0 min 2 min 0 W/m² 16,1 km/h (3 Bft) 97,83 %
12.01.2026 16:34 4,1 °C 3,3 °C 0,6 °C 99 % 1008,8 hPa 0,2 l/m² 0 min 2 min 0 W/m² 19,3 km/h (3 Bft) 100,00 %
12.01.2026 16:36 4,1 °C 3,3 °C 0,6 °C 99 % 1008,7 hPa 0,0 l/m² 0 min 2 min 0 W/m² 12,9 km/h (3 Bft) 100,00 %
12.01.2026 16:38 4,1 °C 3,3 °C 0,6 °C 99 % 1008,7 hPa 0,0 l/m² 0 min 2 min 0 W/m² 16,1 km/h (3 Bft) 100,00 %
12.01.2026 16:40 4,2 °C 3,3 °C 0,6 °C 99 % 1008,8 hPa 0,0 l/m² 0 min 2 min 0 W/m² 12,9 km/h (3 Bft) 100,00 %
12.01.2026 16:42 4,2 °C 3,3 °C 0,6 °C 99 % 1008,8 hPa 0,2 l/m² 0 min 2 min 0 W/m² 19,3 km/h (3 Bft) 100,00 %
12.01.2026 16:44 4,2 °C 3,3 °C 0,6 °C 99 % 1008,8 hPa 0,0 l/m² 0 min 2 min 0 W/m² 16,1 km/h (3 Bft) 100,00 %
12.01.2026 16:46 4,2 °C 3,3 °C 0,6 °C 99 % 1008,7 hPa 0,2 l/m² 0 min 2 min 0 W/m² 12,9 km/h (3 Bft) 100,00 %
12.01.2026 16:48 4,2 °C 3,3 °C 0,6 °C 99 % 1008,8 hPa 0,0 l/m² 0 min 2 min 0 W/m² 16,1 km/h (3 Bft) 100,00 %
12.01.2026 16:50 4,2 °C 3,3 °C 0,6 °C 99 % 1008,8 hPa 0,0 l/m² 0 min 2 min 0 W/m² 16,1 km/h (3 Bft) 100,00 %
12.01.2026 16:52 4,2 °C 3,3 °C 0,6 °C 99 % 1008,8 hPa 0,0 l/m² 0 min 2 min 0 W/m² 12,9 km/h (3 Bft) 100,00 %
12.01.2026 16:54 4,2 °C 3,3 °C 0,6 °C 99 % 1008,8 hPa 0,0 l/m² 0 min 2 min 0 W/m² 12,9 km/h (3 Bft) 97,50 %
12.01.2026 16:56 4,3 °C 3,9 °C 0,6 °C 99 % 1008,8 hPa 0,2 l/m² 0 min 2 min 0 W/m² 16,1 km/h (3 Bft) 100,00 %
12.01.2026 16:58 4,3 °C 3,9 °C 0,6 °C 99 % 1008,8 hPa 0,0 l/m² 0 min 2 min 0 W/m² 6,4 km/h (2 Bft) 100,00 %
12.01.2026 17:00 4,3 °C 3,9 °C 0,6 °C 99 % 1008,8 hPa 0,2 l/m² 0 min 2 min 0 W/m² 12,9 km/h (3 Bft) 100,00 %
12.01.2026 17:02 4,3 °C 3,9 °C 0,6 °C 99 % 1008,9 hPa 0,0 l/m² 0 min 2 min 0 W/m² 19,3 km/h (3 Bft) 97,92 %
12.01.2026 17:04 4,3 °C 3,9 °C 0,6 °C 99 % 1008,8 hPa 0,2 l/m² 0 min 2 min 0 W/m² 6,4 km/h (2 Bft) 100,00 %
12.01.2026 17:06 4,3 °C 3,9 °C 0,6 °C 99 % 1008,8 hPa 0,0 l/m² 0 min 2 min 0 W/m² 12,9 km/h (3 Bft) 98,04 %
12.01.2026 17:08 4,3 °C 3,9 °C 1,1 °C 99 % 1008,8 hPa 0,2 l/m² 0 min 2 min 0 W/m² 19,3 km/h (3 Bft) 100,00 %
12.01.2026 17:10 4,3 °C 3,9 °C 1,1 °C 99 % 1008,8 hPa 0,0 l/m² 0 min 2 min 0 W/m² 16,1 km/h (3 Bft) 97,73 %
12.01.2026 17:12 4,3 °C 3,9 °C 1,1 °C 99 % 1008,7 hPa 0,2 l/m² 0 min 2 min 0 W/m² 12,9 km/h (3 Bft) 100,00 %
12.01.2026 17:14 4,3 °C 3,9 °C 1,1 °C 99 % 1008,7 hPa 0,0 l/m² 0 min 2 min 0 W/m² 22,5 km/h (4 Bft) 100,00 %
12.01.2026 17:16 4,3 °C 3,9 °C 1,1 °C 99 % 1008,7 hPa 0,2 l/m² 0 min 2 min 0 W/m² 19,3 km/h (3 Bft) 97,67 %
12.01.2026 17:18 4,4 °C 3,9 °C 1,1 °C 99 % 1008,7 hPa 0,0 l/m² 0 min 2 min 0 W/m² 12,9 km/h (3 Bft) 100,00 %
12.01.2026 17:20 4,4 °C 3,9 °C 1,1 °C 99 % 1008,6 hPa 0,0 l/m² 0 min 2 min 0 W/m² 16,1 km/h (3 Bft) 100,00 %
12.01.2026 17:22 4,4 °C 3,9 °C 1,1 °C 99 % 1008,6 hPa 0,0 l/m² 0 min 2 min 0 W/m² 16,1 km/h (3 Bft) 100,00 %
12.01.2026 17:24 4,4 °C 3,9 °C 1,1 °C 99 % 1008,5 hPa 0,2 l/m² 0 min 2 min 0 W/m² 29,0 km/h (5 Bft) 95,83 %
12.01.2026 17:26 4,4 °C 3,9 °C 1,1 °C 99 % 1008,5 hPa 0,0 l/m² 0 min 2 min 0 W/m² 16,1 km/h (3 Bft) 60,00 %
12.01.2026 17:28 4,4 °C 3,9 °C 1,1 °C 99 % 1008,5 hPa 0,2 l/m² 0 min 2 min 0 W/m² 12,9 km/h (3 Bft) 100,00 %
12.01.2026 17:30 4,4 °C 3,9 °C 1,1 °C 99 % 1008,5 hPa 0,0 l/m² 0 min 2 min 0 W/m² 12,9 km/h (3 Bft) 97,73 %
12.01.2026 17:32 4,4 °C 3,9 °C 1,1 °C 99 % 1008,5 hPa 0,2 l/m² 0 min 2 min 0 W/m² 12,9 km/h (3 Bft) 97,96 %
12.01.2026 17:34 4,4 °C 3,9 °C 1,1 °C 99 % 1008,5 hPa 0,0 l/m² 0 min 2 min 0 W/m² 9,7 km/h (2 Bft) 97,87 %
12.01.2026 17:36 4,4 °C 3,9 °C 1,1 °C 99 % 1008,4 hPa 0,2 l/m² 0 min 2 min 0 W/m² 12,9 km/h (3 Bft) 97,87 %
12.01.2026 17:38 4,4 °C 3,9 °C 1,1 °C 99 % 1008,3 hPa 0,0 l/m² 0 min 2 min 0 W/m² 9,7 km/h (2 Bft) 98,11 %
12.01.2026 17:40 4,4 °C 3,9 °C 1,1 °C 99 % 1008,3 hPa 0,0 l/m² 0 min 2 min 0 W/m² 6,4 km/h (2 Bft) 100,00 %
12.01.2026 17:42 4,4 °C 3,9 °C 1,1 °C 99 % 1008,3 hPa 0,2 l/m² 0 min 2 min 0 W/m² 6,4 km/h (2 Bft) 100,00 %
12.01.2026 17:44 4,4 °C 3,9 °C 1,1 °C 99 % 1008,4 hPa 0,0 l/m² 0 min 2 min 0 W/m² 6,4 km/h (2 Bft) 97,50 %
12.01.2026 17:46 4,4 °C 3,9 °C 1,1 °C 99 % 1008,3 hPa 0,2 l/m² 0 min 2 min 0 W/m² 6,4 km/h (2 Bft) 96,30 %
12.01.2026 17:48 4,4 °C 3,9 °C 1,1 °C 99 % 1008,3 hPa 0,2 l/m² 0 min 2 min 0 W/m² 6,4 km/h (2 Bft) 97,50 %
12.01.2026 17:50 4,4 °C 3,9 °C 1,1 °C 99 % 1008,3 hPa 0,2 l/m² 0 min 2 min 0 W/m² 6,4 km/h (2 Bft) 95,74 %
12.01.2026 17:52 4,4 °C 3,9 °C 1,1 °C 99 % 1008,2 hPa 0,0 l/m² 0 min 2 min 0 W/m² 12,9 km/h (3 Bft) 95,24 %
12.01.2026 17:54 4,5 °C 3,9 °C 1,1 °C 99 % 1008,2 hPa 0,0 l/m² 0 min 2 min 0 W/m² 12,9 km/h (3 Bft) 94,12 %
12.01.2026 17:56 4,5 °C 3,9 °C 1,1 °C 99 % 1008,2 hPa 0,2 l/m² 0 min 2 min 0 W/m² 6,4 km/h (2 Bft) 93,18 %
12.01.2026 17:58 4,5 °C 3,9 °C 1,1 °C 99 % 1008,2 hPa 0,2 l/m² 0 min 2 min 0 W/m² 6,4 km/h (2 Bft) 94,00 %
12.01.2026 18:00 4,5 °C 3,9 °C 1,1 °C 99 % 1008,1 hPa 0,0 l/m² 0 min 2 min 0 W/m² 3,2 km/h (1 Bft) 93,62 %
12.01.2026 18:02 4,5 °C 3,9 °C 1,1 °C 99 % 1008,1 hPa 0,2 l/m² 0 min 2 min 0 W/m² 12,9 km/h (3 Bft) 95,45 %
12.01.2026 18:04 4,6 °C 3,9 °C 1,1 °C 99 % 1007,9 hPa 0,0 l/m² 0 min 2 min 0 W/m² 16,1 km/h (3 Bft) 96,08 %
12.01.2026 18:07 4,6 °C 3,9 °C 1,1 °C 99 % 1007,9 hPa 0,2 l/m² 0 min 3 min 0 W/m² 16,1 km/h (3 Bft) 96,08 %
12.01.2026 18:10 4,6 °C 3,9 °C 1,1 °C 99 % 1007,9 hPa 0,2 l/m² 0 min 3 min 0 W/m² 16,1 km/h (3 Bft) 95,65 %
12.01.2026 18:12 4,6 °C 3,9 °C 1,1 °C 99 % 1008,0 hPa 0,0 l/m² 0 min 2 min 0 W/m² 9,7 km/h (2 Bft) 95,92 %
12.01.2026 18:14 4,6 °C 3,9 °C 1,1 °C 99 % 1007,9 hPa 0,0 l/m² 0 min 0 min 0 W/m² 12,9 km/h (3 Bft) 97,62 %
12.01.2026 18:16 4,6 °C 3,9 °C 1,1 °C 99 % 1007,9 hPa 0,0 l/m² 0 min 0 min 0 W/m² 16,1 km/h (3 Bft) 96,15 %
12.01.2026 18:18 4,7 °C 3,9 °C 1,1 °C 99 % 1007,9 hPa 0,0 l/m² 0 min 0 min 0 W/m² 12,9 km/h (3 Bft) 95,65 %
12.01.2026 18:20 4,7 °C 3,9 °C 1,1 °C 99 % 1007,8 hPa 0,0 l/m² 0 min 0 min 0 W/m² 16,1 km/h (3 Bft) 95,45 %
12.01.2026 18:22 4,7 °C 3,9 °C 1,1 °C 99 % 1007,8 hPa 0,0 l/m² 0 min 2 min 0 W/m² 12,9 km/h (3 Bft) 98,00 %
12.01.2026 18:24 4,7 °C 3,9 °C 1,1 °C 99 % 1007,7 hPa 0,2 l/m² 0 min 2 min 0 W/m² 12,9 km/h (3 Bft) 97,87 %
12.01.2026 18:26 4,7 °C 3,9 °C 1,1 °C 99 % 1007,8 hPa 0,0 l/m² 0 min 2 min 0 W/m² 19,3 km/h (3 Bft) 95,24 %
12.01.2026 18:28 4,7 °C 3,9 °C 1,1 °C 99 % 1007,7 hPa 0,0 l/m² 0 min 2 min 0 W/m² 12,9 km/h (3 Bft) 94,12 %
12.01.2026 18:30 4,7 °C 3,9 °C 1,1 °C 99 % 1007,7 hPa 0,0 l/m² 0 min 2 min 0 W/m² 19,3 km/h (3 Bft) 97,87 %
12.01.2026 18:32 4,7 °C 3,9 °C 1,1 °C 99 % 1007,7 hPa 0,2 l/m² 0 min 0 min 0 W/m² 6,4 km/h (2 Bft) 100,00 %
12.01.2026 18:34 4,7 °C 3,9 °C 1,1 °C 99 % 1007,7 hPa 0,0 l/m² 0 min 2 min 0 W/m² 12,9 km/h (3 Bft) 100,00 %
12.01.2026 18:36 4,7 °C 3,9 °C 1,1 °C 99 % 1007,7 hPa 0,0 l/m² 0 min 2 min 0 W/m² 16,1 km/h (3 Bft) 100,00 %
12.01.2026 18:38 4,7 °C 3,9 °C 1,1 °C 99 % 1007,6 hPa 0,0 l/m² 0 min 2 min 0 W/m² 9,7 km/h (2 Bft) 100,00 %
12.01.2026 18:40 4,7 °C 3,9 °C 1,1 °C 99 % 1007,6 hPa 0,2 l/m² 0 min 2 min 0 W/m² 12,9 km/h (3 Bft) 97,87 %
12.01.2026 18:42 4,8 °C 3,9 °C 1,1 °C 99 % 1007,6 hPa 0,0 l/m² 0 min 2 min 0 W/m² 16,1 km/h (3 Bft) 95,65 %
12.01.2026 18:44 4,8 °C 3,9 °C 1,1 °C 99 % 1007,6 hPa 0,0 l/m² 0 min 2 min 0 W/m² 12,9 km/h (3 Bft) 95,74 %
12.01.2026 18:46 4,8 °C 3,9 °C 1,1 °C 99 % 1007,6 hPa 0,0 l/m² 0 min 2 min 0 W/m² 16,1 km/h (3 Bft) 95,74 %
12.01.2026 18:48 4,8 °C 3,9 °C 1,1 °C 99 % 1007,6 hPa 0,2 l/m² 0 min 0 min 0 W/m² 12,9 km/h (3 Bft) 97,78 %
12.01.2026 18:50 4,8 °C 3,9 °C 1,1 °C 99 % 1007,5 hPa 0,0 l/m² 0 min 2 min 0 W/m² 16,1 km/h (3 Bft) 97,96 %
12.01.2026 18:52 4,8 °C 4,4 °C 1,1 °C 99 % 1007,6 hPa 0,0 l/m² 0 min 0 min 0 W/m² 12,9 km/h (3 Bft) 97,83 %
12.01.2026 18:54 4,8 °C 4,4 °C 1,7 °C 99 % 1007,5 hPa 0,0 l/m² 0 min 2 min 0 W/m² 12,9 km/h (3 Bft) 97,73 %
12.01.2026 18:56 4,8 °C 4,4 °C 1,7 °C 99 % 1007,5 hPa 0,0 l/m² 0 min 2 min 0 W/m² 16,1 km/h (3 Bft) 98,00 %
12.01.2026 18:58 4,8 °C 4,4 °C 1,7 °C 99 % 1007,5 hPa 0,0 l/m² 0 min 0 min 0 W/m² 16,1 km/h (3 Bft) 97,87 %
12.01.2026 19:00 4,9 °C 4,4 °C 1,7 °C 99 % 1007,5 hPa 0,0 l/m² 0 min 0 min 0 W/m² 16,1 km/h (3 Bft) 93,62 %
12.01.2026 19:02 4,9 °C 4,4 °C 1,7 °C 99 % 1007,5 hPa 0,2 l/m² 0 min 2 min 0 W/m² 16,1 km/h (3 Bft) 97,62 %
12.01.2026 19:04 4,9 °C 4,4 °C 1,7 °C 99 % 1007,5 hPa 0,0 l/m² 0 min 0 min 0 W/m² 12,9 km/h (3 Bft) 98,00 %
12.01.2026 19:06 4,9 °C 4,4 °C 1,7 °C 99 % 1007,5 hPa 0,0 l/m² 0 min 0 min 0 W/m² 16,1 km/h (3 Bft) 97,96 %
12.01.2026 19:08 4,9 °C 4,4 °C 1,7 °C 99 % 1007,4 hPa 0,0 l/m² 0 min 2 min 0 W/m² 16,1 km/h (3 Bft) 97,87 %
12.01.2026 19:10 4,9 °C 4,4 °C 1,7 °C 99 % 1007,4 hPa 0,0 l/m² 0 min 2 min 0 W/m² 6,4 km/h (2 Bft) 97,73 %
12.01.2026 19:12 5,0 °C 4,4 °C 1,7 °C 99 % 1007,4 hPa 0,0 l/m² 0 min 2 min 0 W/m² 16,1 km/h (3 Bft) 97,96 %
12.01.2026 19:14 5,0 °C 4,4 °C 1,7 °C 99 % 1007,4 hPa 0,0 l/m² 0 min 2 min 0 W/m² 3,2 km/h (1 Bft) 97,92 %
12.01.2026 19:16 5,0 °C 4,4 °C 1,7 °C 99 % 1007,5 hPa 0,0 l/m² 0 min 2 min 0 W/m² 12,9 km/h (3 Bft) 95,45 %
12.01.2026 19:18 5,0 °C 4,4 °C 1,7 °C 99 % 1007,3 hPa 0,2 l/m² 0 min 0 min 0 W/m² 9,7 km/h (2 Bft) 91,84 %
12.01.2026 19:20 5,0 °C 4,4 °C 1,7 °C 99 % 1007,3 hPa 0,0 l/m² 0 min 0 min 0 W/m² 12,9 km/h (3 Bft) 97,87 %
12.01.2026 19:22 5,0 °C 4,4 °C 1,7 °C 99 % 1007,4 hPa 0,0 l/m² 0 min 0 min 0 W/m² 12,9 km/h (3 Bft) 97,67 %
12.01.2026 19:24 5,1 °C 4,4 °C 1,7 °C 99 % 1007,3 hPa 0,0 l/m² 0 min 0 min 0 W/m² 12,9 km/h (3 Bft) 98,04 %
12.01.2026 19:26 5,1 °C 4,4 °C 1,7 °C 99 % 1007,4 hPa 0,0 l/m² 0 min 0 min 0 W/m² 9,7 km/h (2 Bft) 97,87 %
12.01.2026 19:28 5,1 °C 4,4 °C 1,7 °C 99 % 1007,5 hPa 0,0 l/m² 0 min 0 min 0 W/m² 6,4 km/h (2 Bft) 100,00 %
12.01.2026 19:30 5,1 °C 4,4 °C 1,7 °C 99 % 1007,4 hPa 0,0 l/m² 0 min 0 min 0 W/m² 6,4 km/h (2 Bft) 100,00 %
12.01.2026 19:32 5,1 °C 4,4 °C 1,7 °C 99 % 1007,5 hPa 0,0 l/m² 0 min 0 min 0 W/m² 9,7 km/h (2 Bft) 100,00 %
12.01.2026 19:34 5,1 °C 4,4 °C 1,7 °C 99 % 1007,3 hPa 0,0 l/m² 0 min 0 min 0 W/m² 12,9 km/h (3 Bft) 100,00 %
12.01.2026 19:36 5,1 °C 4,4 °C 1,7 °C 99 % 1007,5 hPa 0,0 l/m² 0 min 0 min 0 W/m² 6,4 km/h (2 Bft) 97,96 %
12.01.2026 19:38 5,1 °C 4,4 °C 1,7 °C 99 % 1007,4 hPa 0,0 l/m² 0 min 0 min 0 W/m² 12,9 km/h (3 Bft) 100,00 %
12.01.2026 19:40 5,1 °C 4,4 °C 1,7 °C 99 % 1007,5 hPa 0,0 l/m² 0 min 0 min 0 W/m² 6,4 km/h (2 Bft) 98,04 %
12.01.2026 19:46 5,1 °C 4,4 °C 1,7 °C 99 % 1007,5 hPa 0,0 l/m² 0 min 0 min 0 W/m² 6,4 km/h (2 Bft) 96,30 %
12.01.2026 19:48 5,1 °C 4,4 °C 1,7 °C 99 % 1007,6 hPa 0,0 l/m² 0 min 0 min 0 W/m² 6,4 km/h (2 Bft) 97,87 %
12.01.2026 19:50 5,2 °C 4,4 °C 1,7 °C 99 % 1007,6 hPa 0,0 l/m² 0 min 0 min 0 W/m² 6,4 km/h (2 Bft) 98,28 %
12.01.2026 19:52 5,2 °C 4,4 °C 1,7 °C 99 % 1007,6 hPa 0,0 l/m² 0 min 0 min 0 W/m² 3,2 km/h (1 Bft) 97,87 %
12.01.2026 19:54 5,2 °C 4,4 °C 1,7 °C 99 % 1007,7 hPa 0,0 l/m² 0 min 0 min 0 W/m² 6,4 km/h (2 Bft) 97,87 %
12.01.2026 19:56 5,2 °C 5,0 °C 1,7 °C 99 % 1007,6 hPa 0,0 l/m² 0 min 0 min 0 W/m² 16,1 km/h (3 Bft) 97,62 %
12.01.2026 19:58 5,3 °C 5,0 °C 2,2 °C 99 % 1007,6 hPa 0,0 l/m² 0 min 0 min 0 W/m² 9,7 km/h (2 Bft) 95,74 %
12.01.2026 20:00 5,3 °C 5,0 °C 1,7 °C 99 % 1007,6 hPa 0,0 l/m² 0 min 0 min 0 W/m² 6,4 km/h (2 Bft) 97,83 %
12.01.2026 20:02 5,3 °C 5,0 °C 1,7 °C 99 % 1007,6 hPa 0,0 l/m² 0 min 0 min 0 W/m² 3,2 km/h (1 Bft) 97,56 %
12.01.2026 20:04 5,4 °C 5,0 °C 1,7 °C 99 % 1007,7 hPa 0,0 l/m² 0 min 0 min 0 W/m² 9,7 km/h (2 Bft) 97,96 %
12.01.2026 20:08 5,4 °C 5,0 °C 2,2 °C 99 % 1007,8 hPa 0,0 l/m² 0 min 0 min 0 W/m² 6,4 km/h (2 Bft) 96,15 %
12.01.2026 20:10 5,4 °C 5,0 °C 2,2 °C 99 % 1007,7 hPa 0,0 l/m² 0 min 0 min 0 W/m² 6,4 km/h (2 Bft) 97,87 %
12.01.2026 20:12 5,5 °C 5,0 °C 2,2 °C 99 % 1007,8 hPa 0,0 l/m² 0 min 0 min 0 W/m² 6,4 km/h (2 Bft) 97,87 %
12.01.2026 20:14 5,6 °C 5,0 °C 2,2 °C 99 % 1007,7 hPa 0,0 l/m² 0 min 0 min 0 W/m² 6,4 km/h (2 Bft) 97,22 %
12.01.2026 20:16 5,7 °C 5,6 °C 2,2 °C 100 % 1007,8 hPa 0,0 l/m² 0 min 0 min 0 W/m² 19,3 km/h (3 Bft) 94,83 %
12.01.2026 20:18 5,8 °C 5,6 °C 2,2 °C 100 % 1007,9 hPa 0,0 l/m² 0 min 0 min 0 W/m² 19,3 km/h (3 Bft) 100,00 %
12.01.2026 20:20 6,0 °C 5,6 °C 2,8 °C 100 % 1007,8 hPa 0,0 l/m² 0 min 0 min 0 W/m² 19,3 km/h (3 Bft) 100,00 %
12.01.2026 20:22 6,3 °C 6,1 °C 2,8 °C 99 % 1007,8 hPa 0,0 l/m² 0 min 0 min 0 W/m² 12,9 km/h (3 Bft) 100,00 %
12.01.2026 20:24 6,5 °C 6,1 °C 3,3 °C 100 % 1007,9 hPa 0,0 l/m² 0 min 0 min 0 W/m² 16,1 km/h (3 Bft) 97,22 %
12.01.2026 20:26 6,7 °C 6,7 °C 3,3 °C 100 % 1007,9 hPa 0,0 l/m² 0 min 0 min 0 W/m² 16,1 km/h (3 Bft) 98,28 %
12.01.2026 20:28 6,9 °C 6,7 °C 3,3 °C 100 % 1008,0 hPa 0,0 l/m² 0 min 0 min 0 W/m² 12,9 km/h (3 Bft) 97,87 %
12.01.2026 20:30 7,1 °C 6,7 °C 3,3 °C 100 % 1008,0 hPa 0,2 l/m² 0 min 0 min 0 W/m² 16,1 km/h (3 Bft) 97,14 %
12.01.2026 20:32 7,3 °C 6,7 °C 3,9 °C 100 % 1008,0 hPa 0,0 l/m² 0 min 2 min 0 W/m² 16,1 km/h (3 Bft) 97,87 %
12.01.2026 20:34 7,4 °C 6,7 °C 3,3 °C 100 % 1008,0 hPa 0,0 l/m² 0 min 0 min 0 W/m² 12,9 km/h (3 Bft) 97,87 %
12.01.2026 20:36 7,5 °C 6,7 °C 3,9 °C 100 % 1008,1 hPa 0,0 l/m² 0 min 2 min 0 W/m² 16,1 km/h (3 Bft) 97,87 %
12.01.2026 20:38 7,6 °C 7,2 °C 3,9 °C 100 % 1008,1 hPa 0,0 l/m² 0 min 2 min 0 W/m² 12,9 km/h (3 Bft) 98,15 %
12.01.2026 20:40 7,7 °C 7,2 °C 3,9 °C 100 % 1008,1 hPa 0,0 l/m² 0 min 0 min 0 W/m² 6,4 km/h (2 Bft) 95,74 %
12.01.2026 20:42 7,7 °C 7,2 °C 3,9 °C 100 % 1008,1 hPa 0,0 l/m² 0 min 0 min 0 W/m² 16,1 km/h (3 Bft) 55,32 %
12.01.2026 20:44 7,7 °C 7,2 °C 3,9 °C 100 % 1008,1 hPa 0,0 l/m² 0 min 0 min 0 W/m² 6,4 km/h (2 Bft) 93,48 %
12.01.2026 20:46 7,8 °C 7,2 °C 3,9 °C 100 % 1008,1 hPa 0,0 l/m² 0 min 0 min 0 W/m² 12,9 km/h (3 Bft) 96,08 %
12.01.2026 20:48 7,8 °C 6,7 °C 3,9 °C 100 % 1008,1 hPa 0,2 l/m² 0 min 0 min 0 W/m² 12,9 km/h (3 Bft) 97,87 %
12.01.2026 20:50 7,8 °C 7,2 °C 3,9 °C 100 % 1008,2 hPa 0,0 l/m² 0 min 0 min 0 W/m² 6,4 km/h (2 Bft) 97,87 %
12.01.2026 20:52 7,8 °C 6,7 °C 3,9 °C 100 % 1008,2 hPa 0,0 l/m² 0 min 0 min 0 W/m² 6,4 km/h (2 Bft) 97,87 %
12.01.2026 20:54 7,8 °C 7,2 °C 3,9 °C 100 % 1008,2 hPa 0,0 l/m² 0 min 0 min 0 W/m² 12,9 km/h (3 Bft) 97,83 %
12.01.2026 20:56 7,8 °C 7,2 °C 3,9 °C 100 % 1008,2 hPa 0,0 l/m² 0 min 0 min 0 W/m² 9,7 km/h (2 Bft) 97,83 %
12.01.2026 20:58 7,8 °C 6,7 °C 3,9 °C 100 % 1008,3 hPa 0,0 l/m² 0 min 0 min 0 W/m² 3,2 km/h (1 Bft) 94,59 %
12.01.2026 21:00 7,8 °C 6,7 °C 3,9 °C 100 % 1008,2 hPa 0,0 l/m² 0 min 0 min 0 W/m² 12,9 km/h (3 Bft) 98,21 %
12.01.2026 21:02 7,8 °C 7,2 °C 3,9 °C 100 % 1008,2 hPa 0,0 l/m² 0 min 0 min 0 W/m² 6,4 km/h (2 Bft) 97,37 %
12.01.2026 21:04 7,8 °C 7,2 °C 3,9 °C 100 % 1008,3 hPa 0,0 l/m² 0 min 0 min 0 W/m² 6,4 km/h (2 Bft) 97,92 %
12.01.2026 21:08 7,8 °C 7,2 °C 3,9 °C 100 % 1008,3 hPa 0,0 l/m² 0 min 0 min 0 W/m² 12,9 km/h (3 Bft) 98,04 %
12.01.2026 21:10 7,8 °C 7,2 °C 3,9 °C 100 % 1008,3 hPa 0,0 l/m² 0 min 0 min 0 W/m² 12,9 km/h (3 Bft) 100,00 %
12.01.2026 21:12 7,8 °C 7,2 °C 3,9 °C 100 % 1008,5 hPa 0,0 l/m² 0 min 0 min 0 W/m² 9,7 km/h (2 Bft) 100,00 %
12.01.2026 21:14 7,8 °C 7,2 °C 3,9 °C 100 % 1008,5 hPa 0,0 l/m² 0 min 0 min 0 W/m² 12,9 km/h (3 Bft) 100,00 %
12.01.2026 21:16 7,8 °C 7,2 °C 3,9 °C 100 % 1008,5 hPa 0,0 l/m² 0 min 0 min 0 W/m² 9,7 km/h (2 Bft) 100,00 %
12.01.2026 21:18 7,8 °C 7,2 °C 3,9 °C 100 % 1008,5 hPa 0,0 l/m² 0 min 0 min 0 W/m² 3,2 km/h (1 Bft) 100,00 %
12.01.2026 21:20 7,7 °C 6,7 °C 3,9 °C 100 % 1008,5 hPa 0,0 l/m² 0 min 0 min 0 W/m² 3,2 km/h (1 Bft) 97,87 %
12.01.2026 21:22 7,7 °C 6,7 °C 3,9 °C 100 % 1008,5 hPa 0,0 l/m² 0 min 0 min 0 W/m² 3,2 km/h (1 Bft) 100,00 %
12.01.2026 21:24 7,7 °C 6,7 °C 3,9 °C 100 % 1008,5 hPa 0,0 l/m² 0 min 0 min 0 W/m² 9,7 km/h (2 Bft) 100,00 %
12.01.2026 21:26 7,7 °C 6,7 °C 3,9 °C 100 % 1008,4 hPa 0,0 l/m² 0 min 0 min 0 W/m² 6,4 km/h (2 Bft) 100,00 %
12.01.2026 21:28 7,7 °C 6,7 °C 3,9 °C 100 % 1008,4 hPa 0,0 l/m² 0 min 0 min 0 W/m² 6,4 km/h (2 Bft) 97,83 %
12.01.2026 21:30 7,7 °C 6,7 °C 3,9 °C 100 % 1008,5 hPa 0,0 l/m² 0 min 0 min 0 W/m² 6,4 km/h (2 Bft) 100,00 %
12.01.2026 21:32 7,7 °C 6,7 °C 3,9 °C 100 % 1008,5 hPa 0,0 l/m² 0 min 0 min 0 W/m² 6,4 km/h (2 Bft) 100,00 %
12.01.2026 21:34 7,7 °C 6,7 °C 3,9 °C 100 % 1008,5 hPa 0,0 l/m² 0 min 0 min 0 W/m² 12,9 km/h (3 Bft) 95,65 %
12.01.2026 21:36 7,7 °C 7,2 °C 3,9 °C 100 % 1008,6 hPa 0,0 l/m² 0 min 0 min 0 W/m² 12,9 km/h (3 Bft) 100,00 %
12.01.2026 21:38 7,8 °C 7,2 °C 3,9 °C 100 % 1008,6 hPa 0,0 l/m² 0 min 0 min 0 W/m² 6,4 km/h (2 Bft) 96,23 %
12.01.2026 21:40 7,8 °C 7,2 °C 3,9 °C 100 % 1008,5 hPa 0,0 l/m² 0 min 0 min 0 W/m² 9,7 km/h (2 Bft) 100,00 %
12.01.2026 21:42 7,8 °C 7,2 °C 3,9 °C 100 % 1008,5 hPa 0,0 l/m² 0 min 0 min 0 W/m² 6,4 km/h (2 Bft) 97,87 %
12.01.2026 21:44 7,8 °C 7,2 °C 3,9 °C 100 % 1008,6 hPa 0,0 l/m² 0 min 0 min 0 W/m² 3,2 km/h (1 Bft) 95,74 %
12.01.2026 21:46 7,8 °C 7,2 °C 3,9 °C 100 % 1008,6 hPa 0,0 l/m² 0 min 0 min 0 W/m² 3,2 km/h (1 Bft) 95,74 %
12.01.2026 21:48 7,7 °C 7,2 °C 3,9 °C 100 % 1008,6 hPa 0,0 l/m² 0 min 0 min 0 W/m² 6,4 km/h (2 Bft) 100,00 %
12.01.2026 21:50 7,7 °C 7,2 °C 3,9 °C 100 % 1008,7 hPa 0,0 l/m² 0 min 0 min 0 W/m² 6,4 km/h (2 Bft) 95,83 %
12.01.2026 21:52 7,7 °C 6,7 °C 3,9 °C 100 % 1008,7 hPa 0,0 l/m² 0 min 0 min 0 W/m² 12,9 km/h (3 Bft) 97,83 %
12.01.2026 21:54 7,8 °C 6,7 °C 3,9 °C 100 % 1008,6 hPa 0,0 l/m² 0 min 0 min 0 W/m² 3,2 km/h (1 Bft) 97,78 %
12.01.2026 21:56 7,8 °C 6,7 °C 3,9 °C 100 % 1008,6 hPa 0,0 l/m² 0 min 0 min 0 W/m² 9,7 km/h (2 Bft) 98,31 %
12.01.2026 21:58 7,8 °C 7,2 °C 3,9 °C 100 % 1008,6 hPa 0,0 l/m² 0 min 0 min 0 W/m² 12,9 km/h (3 Bft) 95,45 %
12.01.2026 22:00 7,8 °C 7,2 °C 3,9 °C 100 % 1008,6 hPa 0,0 l/m² 0 min 0 min 0 W/m² 6,4 km/h (2 Bft) 95,00 %
12.01.2026 22:02 7,8 °C 7,2 °C 3,9 °C 100 % 1008,7 hPa 0,0 l/m² 0 min 0 min 0 W/m² 6,4 km/h (2 Bft) 96,36 %
12.01.2026 22:04 7,8 °C 7,2 °C 3,9 °C 100 % 1008,7 hPa 0,0 l/m² 0 min 0 min 0 W/m² 9,7 km/h (2 Bft) 94,87 %
12.01.2026 22:06 7,8 °C 7,2 °C 3,9 °C 100 % 1008,6 hPa 0,0 l/m² 0 min 0 min 0 W/m² 6,4 km/h (2 Bft) 94,92 %
12.01.2026 22:08 7,8 °C 7,2 °C 3,9 °C 100 % 1008,6 hPa 0,0 l/m² 0 min 0 min 0 W/m² 6,4 km/h (2 Bft) 97,14 %
12.01.2026 22:10 7,8 °C 7,2 °C 3,9 °C 100 % 1008,6 hPa 0,0 l/m² 0 min 0 min 0 W/m² 6,4 km/h (2 Bft) 95,74 %
12.01.2026 22:12 7,8 °C 7,2 °C 3,9 °C 100 % 1008,6 hPa 0,0 l/m² 0 min 0 min 0 W/m² 16,1 km/h (3 Bft) 93,62 %
12.01.2026 22:14 7,8 °C 7,2 °C 3,9 °C 100 % 1008,6 hPa 0,0 l/m² 0 min 0 min 0 W/m² 12,9 km/h (3 Bft) 95,65 %
12.01.2026 22:16 7,8 °C 6,7 °C 3,9 °C 100 % 1008,6 hPa 0,0 l/m² 0 min 0 min 0 W/m² 6,4 km/h (2 Bft) 95,74 %
12.01.2026 22:18 7,8 °C 6,7 °C 3,9 °C 100 % 1008,6 hPa 0,0 l/m² 0 min 0 min 0 W/m² 6,4 km/h (2 Bft) 97,73 %
12.01.2026 22:20 7,8 °C 7,2 °C 3,9 °C 100 % 1008,6 hPa 0,0 l/m² 0 min 0 min 0 W/m² 12,9 km/h (3 Bft) 100,00 %
12.01.2026 22:22 7,8 °C 7,2 °C 3,9 °C 100 % 1008,7 hPa 0,0 l/m² 0 min 0 min 0 W/m² 19,3 km/h (3 Bft) 96,43 %
12.01.2026 22:24 7,8 °C 7,2 °C 3,9 °C 100 % 1008,7 hPa 0,0 l/m² 0 min 0 min 0 W/m² 9,7 km/h (2 Bft) 100,00 %
12.01.2026 22:26 7,8 °C 7,2 °C 3,9 °C 100 % 1008,7 hPa 0,0 l/m² 0 min 0 min 0 W/m² 9,7 km/h (2 Bft) 100,00 %
12.01.2026 22:28 7,8 °C 7,2 °C 3,9 °C 100 % 1008,7 hPa 0,0 l/m² 0 min 0 min 0 W/m² 25,7 km/h (4 Bft) 100,00 %
12.01.2026 22:30 7,8 °C 7,2 °C 4,4 °C 100 % 1008,6 hPa 0,0 l/m² 0 min 0 min 0 W/m² 9,7 km/h (2 Bft) 100,00 %
12.01.2026 22:32 7,8 °C 7,2 °C 4,4 °C 100 % 1008,7 hPa 0,0 l/m² 0 min 0 min 0 W/m² 12,9 km/h (3 Bft) 97,92 %
12.01.2026 22:34 7,8 °C 7,2 °C 3,9 °C 100 % 1008,8 hPa 0,0 l/m² 0 min 0 min 0 W/m² 12,9 km/h (3 Bft) 100,00 %
12.01.2026 22:36 7,8 °C 7,2 °C 3,9 °C 100 % 1008,9 hPa 0,0 l/m² 0 min 0 min 0 W/m² 12,9 km/h (3 Bft) 100,00 %
12.01.2026 22:38 7,8 °C 7,2 °C 3,9 °C 100 % 1008,9 hPa 0,0 l/m² 0 min 0 min 0 W/m² 12,9 km/h (3 Bft) 100,00 %
12.01.2026 22:40 7,8 °C 7,2 °C 3,9 °C 100 % 1008,9 hPa 0,0 l/m² 0 min 0 min 0 W/m² 9,7 km/h (2 Bft) 100,00 %
12.01.2026 22:42 7,8 °C 7,2 °C 3,9 °C 100 % 1008,9 hPa 0,0 l/m² 0 min 0 min 0 W/m² 12,9 km/h (3 Bft) 100,00 %
12.01.2026 22:44 7,8 °C 7,2 °C 3,9 °C 100 % 1008,9 hPa 0,0 l/m² 0 min 0 min 0 W/m² 16,1 km/h (3 Bft) 95,65 %
12.01.2026 22:46 7,8 °C 6,7 °C 3,9 °C 100 % 1009,1 hPa 0,0 l/m² 0 min 0 min 0 W/m² 6,4 km/h (2 Bft) 100,00 %
12.01.2026 22:48 7,7 °C 6,7 °C 3,9 °C 100 % 1009,0 hPa 0,0 l/m² 0 min 0 min 0 W/m² 6,4 km/h (2 Bft) 100,00 %
12.01.2026 22:50 7,7 °C 6,7 °C 3,9 °C 100 % 1009,1 hPa 0,0 l/m² 0 min 0 min 0 W/m² 6,4 km/h (2 Bft) 100,00 %
12.01.2026 22:52 7,7 °C 6,7 °C 3,9 °C 100 % 1009,0 hPa 0,0 l/m² 0 min 0 min 0 W/m² 12,9 km/h (3 Bft) 97,50 %
12.01.2026 22:54 7,7 °C 6,7 °C 3,9 °C 100 % 1009,1 hPa 0,0 l/m² 0 min 0 min 0 W/m² 22,5 km/h (4 Bft) 100,00 %
12.01.2026 22:56 7,7 °C 7,2 °C 3,9 °C 100 % 1009,0 hPa 0,0 l/m² 0 min 0 min 0 W/m² 9,7 km/h (2 Bft) 100,00 %
12.01.2026 22:58 7,7 °C 6,7 °C 3,9 °C 100 % 1009,0 hPa 0,0 l/m² 0 min 0 min 0 W/m² 3,2 km/h (1 Bft) 100,00 %
12.01.2026 23:00 7,6 °C 6,7 °C 3,9 °C 100 % 1009,0 hPa 0,0 l/m² 0 min 0 min 0 W/m² 9,7 km/h (2 Bft) 100,00 %
12.01.2026 23:02 7,6 °C 6,7 °C 3,9 °C 100 % 1009,0 hPa 0,0 l/m² 0 min 0 min 0 W/m² 6,4 km/h (2 Bft) 97,83 %
12.01.2026 23:04 7,6 °C 6,7 °C 3,9 °C 100 % 1009,0 hPa 0,0 l/m² 0 min 0 min 0 W/m² 12,9 km/h (3 Bft) 94,55 %
12.01.2026 23:06 7,6 °C 6,7 °C 3,9 °C 100 % 1008,9 hPa 0,0 l/m² 0 min 0 min 0 W/m² 6,4 km/h (2 Bft) 97,56 %
12.01.2026 23:08 7,6 °C 6,7 °C 3,9 °C 100 % 1008,9 hPa 0,0 l/m² 0 min 0 min 0 W/m² 6,4 km/h (2 Bft) 95,74 %
12.01.2026 23:10 7,6 °C 6,7 °C 3,9 °C 100 % 1009,0 hPa 0,0 l/m² 0 min 0 min 0 W/m² 9,7 km/h (2 Bft) 95,74 %
12.01.2026 23:12 7,6 °C 6,7 °C 3,9 °C 100 % 1009,0 hPa 0,0 l/m² 0 min 0 min 0 W/m² 9,7 km/h (2 Bft) 97,83 %
12.01.2026 23:14 7,6 °C 6,7 °C 3,9 °C 100 % 1009,1 hPa 0,0 l/m² 0 min 0 min 0 W/m² 3,2 km/h (1 Bft) 97,73 %
12.01.2026 23:16 7,6 °C 6,7 °C 3,9 °C 100 % 1009,1 hPa 0,0 l/m² 0 min 0 min 0 W/m² 6,4 km/h (2 Bft) 98,21 %
12.01.2026 23:18 7,6 °C 6,7 °C 3,3 °C 100 % 1009,2 hPa 0,0 l/m² 0 min 0 min 0 W/m² 6,4 km/h (2 Bft) 95,12 %
12.01.2026 23:20 7,6 °C 6,7 °C 3,3 °C 100 % 1009,2 hPa 0,0 l/m² 0 min 0 min 0 W/m² 3,2 km/h (1 Bft) 97,73 %
12.01.2026 23:22 7,6 °C 6,7 °C 3,3 °C 100 % 1009,2 hPa 0,0 l/m² 0 min 0 min 0 W/m² 6,4 km/h (2 Bft) 95,65 %
12.01.2026 23:24 7,6 °C 6,7 °C 3,3 °C 100 % 1009,2 hPa 0,0 l/m² 0 min 0 min 0 W/m² 9,7 km/h (2 Bft) 96,49 %
12.01.2026 23:26 7,6 °C 6,7 °C 3,3 °C 100 % 1009,2 hPa 0,0 l/m² 0 min 0 min 0 W/m² 6,4 km/h (2 Bft) 97,50 %
12.01.2026 23:28 7,5 °C 6,7 °C 3,3 °C 100 % 1009,2 hPa 0,0 l/m² 0 min 0 min 0 W/m² 9,7 km/h (2 Bft) 97,87 %
12.01.2026 23:30 7,5 °C 6,7 °C 3,3 °C 100 % 1009,2 hPa 0,0 l/m² 0 min 0 min 0 W/m² 6,4 km/h (2 Bft) 97,78 %
12.01.2026 23:32 7,5 °C 6,7 °C 3,3 °C 100 % 1009,2 hPa 0,0 l/m² 0 min 0 min 0 W/m² 6,4 km/h (2 Bft) 97,78 %
12.01.2026 23:34 7,5 °C 6,7 °C 3,3 °C 100 % 1009,3 hPa 0,0 l/m² 0 min 0 min 0 W/m² 6,4 km/h (2 Bft) 97,87 %
12.01.2026 23:36 7,4 °C 6,7 °C 3,3 °C 100 % 1009,4 hPa 0,0 l/m² 0 min 0 min 0 W/m² 6,4 km/h (2 Bft) 93,62 %
12.01.2026 23:38 7,4 °C 6,7 °C 3,3 °C 100 % 1009,3 hPa 0,0 l/m² 0 min 0 min 0 W/m² 6,4 km/h (2 Bft) 98,21 %
12.01.2026 23:40 7,4 °C 6,7 °C 3,3 °C 100 % 1009,4 hPa 0,0 l/m² 0 min 0 min 0 W/m² 6,4 km/h (2 Bft) 97,56 %
12.01.2026 23:42 7,4 °C 6,7 °C 3,3 °C 100 % 1009,5 hPa 0,0 l/m² 0 min 0 min 0 W/m² 6,4 km/h (2 Bft) 93,62 %
12.01.2026 23:44 7,4 °C 6,7 °C 3,3 °C 100 % 1009,5 hPa 0,0 l/m² 0 min 0 min 0 W/m² 3,2 km/h (1 Bft) 97,83 %
12.01.2026 23:46 7,3 °C 6,1 °C 3,3 °C 100 % 1009,5 hPa 0,0 l/m² 0 min 0 min 0 W/m² 3,2 km/h (1 Bft) 97,78 %
12.01.2026 23:48 7,3 °C 6,7 °C 3,3 °C 100 % 1009,5 hPa 0,0 l/m² 0 min 0 min 0 W/m² 0,0 km/h (0 Bft) 96,43 %
12.01.2026 23:50 7,3 °C 6,7 °C 3,3 °C 100 % 1009,5 hPa 0,0 l/m² 0 min 0 min 0 W/m² 0,0 km/h (0 Bft) 97,50 %
12.01.2026 23:52 7,3 °C 6,7 °C 3,3 °C 100 % 1009,6 hPa 0,0 l/m² 0 min 0 min 0 W/m² 0,0 km/h (0 Bft) 95,74 %
12.01.2026 23:54 7,3 °C 6,7 °C 3,3 °C 100 % 1009,7 hPa 0,0 l/m² 0 min 0 min 0 W/m² 0,0 km/h (0 Bft) 95,74 %
12.01.2026 23:56 7,3 °C 6,7 °C 3,3 °C 100 % 1009,7 hPa 0,0 l/m² 0 min 0 min 0 W/m² 6,4 km/h (2 Bft) 97,83 %
12.01.2026 23:58 7,3 °C 6,7 °C 3,3 °C 100 % 1009,8 hPa 0,0 l/m² 0 min 0 min 0 W/m² 6,4 km/h (2 Bft) 97,73 %
_ Min-Zeit 00:00 00:00 00:00 01:04 19:18 - - - - 23:48 00:02
Minimum _ 0,1 °C -0,6 °C -3,9 °C 90 % 1007,3 hPa - - - - 0,0 km/h (0 Bft) 9,09 %
_ Max-Zeit 20:46 20:38 22:30 20:16 00:00 06:46 00:00 03:12 12:26 00:58 00:04
Maximum _ 7,8 °C 7,2 °C 4,4 °C 100 % 1017,7 hPa 0,2 l/m² 0 min 5 min 128 W/m² 41,8 km/h
W-SW (6 Bft)
100,00 %
Durchschnitt _ 2,9 °C 2,3 °C -0,8 °C 97 % 1010,8 hPa #13,0 l/m² #0 min. #4:44 h 37 W/m² 17,6 km/h (3 Bft) 96,83 %
© 2026 W. Hausmann